GEFSSE_prec_meanprecacc_132.txt.gz
Total_Precipitation_Accumulation
0.53 0.31 0.58 0.63 0.53 0.47 0.53 0.60 0.61 0.62 0.68 0.74 0.69 0.64 0.60 0.44 0.36 0.30 0.27 0.26 0.32 0.42 0.41 0.37 0.34 0.30 0.22 0.20 0.25 0.32 0.39 0.48 0.53 0.56 0.64 0.68 0.65 0.68 0.82 0.99 1.07 1.30 0.87
0.51 0.37 0.61 0.67 0.55 0.48 0.49 0.52 0.57 0.57 0.60 0.64 0.66 0.67 0.54 0.40 0.35 0.31 0.27 0.26 0.28 0.32 0.33 0.37 0.39 0.34 0.27 0.28 0.33 0.37 0.40 0.45 0.56 0.60 0.75 0.79 0.70 0.71 0.68 0.78 0.95 1.10 0.81
0.51 0.42 0.51 0.61 0.53 0.48 0.48 0.52 0.58 0.60 0.62 0.65 0.69 0.73 0.53 0.40 0.36 0.33 0.33 0.32 0.31 0.27 0.28 0.36 0.42 0.40 0.33 0.35 0.40 0.42 0.44 0.48 0.57 0.65 1.01 1.48 1.01 0.75 0.74 0.79 0.82 0.73 0.76
0.60 0.55 0.61 0.74 0.64 0.54 0.52 0.61 0.69 0.75 0.78 0.84 0.82 0.70 0.49 0.43 0.43 0.42 0.43 0.43 0.37 0.29 0.29 0.32 0.38 0.38 0.34 0.37 0.41 0.40 0.47 0.53 0.63 0.74 1.09 1.51 1.38 1.03 0.92 0.90 0.83 0.68 0.76
0.60 0.65 0.81 0.88 0.76 0.67 0.64 0.70 0.82 0.91 0.90 0.92 0.86 0.64 0.52 0.50 0.52 0.52 0.55 0.48 0.39 0.35 0.32 0.32 0.35 0.33 0.32 0.33 0.37 0.40 0.47 0.59 0.77 0.84 1.13 1.45 1.61 1.13 0.90 0.99 0.98 0.81 0.85
0.53 0.55 0.70 0.84 0.76 0.72 0.74 0.80 0.82 0.78 0.79 0.88 0.80 0.63 0.52 0.57 0.58 0.58 0.53 0.45 0.43 0.43 0.39 0.38 0.37 0.35 0.36 0.33 0.37 0.42 0.50 0.63 0.74 0.92 1.13 1.48 1.54 1.04 0.84 0.96 1.03 0.98 0.94
0.59 0.51 0.60 0.72 0.69 0.68 0.75 0.83 0.85 0.77 0.80 0.84 0.81 0.74 0.57 0.56 0.60 0.62 0.54 0.46 0.44 0.45 0.44 0.43 0.40 0.37 0.34 0.34 0.36 0.40 0.50 0.50 0.65 0.89 1.08 1.44 1.22 0.82 0.71 0.86 1.09 1.18 1.08
0.66 0.60 0.56 0.65 0.64 0.63 0.68 0.76 0.81 0.79 0.87 0.86 0.75 0.69 0.65 0.57 0.58 0.58 0.54 0.54 0.51 0.49 0.48 0.46 0.40 0.37 0.37 0.37 0.37 0.39 0.45 0.40 0.42 0.65 0.86 1.18 1.07 0.90 0.68 0.72 0.93 1.09 1.14
0.73 0.70 0.64 0.64 0.64 0.68 0.77 0.77 0.80 0.87 0.98 0.95 0.77 0.70 0.71 0.60 0.53 0.51 0.52 0.54 0.53 0.54 0.57 0.51 0.42 0.36 0.39 0.41 0.40 0.39 0.41 0.42 0.44 0.56 0.67 0.92 0.94 0.93 0.69 0.67 0.82 0.95 1.11
0.70 0.67 0.60 0.60 0.64 0.69 0.79 0.83 0.84 0.84 0.93 0.92 0.81 0.80 0.79 0.64 0.54 0.54 0.53 0.56 0.58 0.60 0.65 0.60 0.50 0.44 0.43 0.44 0.43 0.40 0.40 0.37 0.41 0.46 0.61 0.66 0.83 0.84 0.65 0.60 0.68 0.77 0.84
0.63 0.63 0.60 0.58 0.61 0.67 0.77 0.79 0.89 0.92 0.95 0.88 0.82 0.85 0.77 0.56 0.53 0.56 0.50 0.62 0.71 0.82 0.82 0.75 0.65 0.56 0.49 0.42 0.40 0.40 0.32 0.28 0.42 0.45 0.54 0.64 0.81 0.79 0.64 0.59 0.62 0.61 0.61
0.65 0.66 0.63 0.66 0.65 0.64 0.69 0.93 1.10 0.98 0.89 0.78 0.80 0.78 0.76 0.73 0.70 0.52 0.53 0.68 0.74 0.82 0.83 0.78 0.74 0.59 0.41 0.30 0.35 0.37 0.23 0.26 0.36 0.38 0.41 0.63 0.82 0.83 0.72 0.61 0.56 0.53 0.50
0.66 0.67 0.62 0.60 0.54 0.55 0.69 0.87 1.06 1.11 1.07 1.04 0.90 0.89 0.85 0.76 0.65 0.51 0.49 0.54 0.59 0.68 0.65 0.69 0.67 0.46 0.36 0.35 0.38 0.31 0.26 0.29 0.34 0.38 0.47 0.73 0.88 0.84 0.78 0.67 0.59 0.53 0.50
0.57 0.60 0.56 0.54 0.51 0.49 0.50 0.61 0.76 0.83 0.82 0.84 0.85 0.79 0.80 0.81 0.74 0.64 0.58 0.62 0.64 0.63 0.68 0.73 0.69 0.55 0.45 0.38 0.37 0.37 0.35 0.33 0.38 0.48 0.55 0.74 0.93 0.93 0.90 0.79 0.71 0.61 0.55
0.51 0.53 0.55 0.58 0.55 0.61 0.60 0.57 0.56 0.62 0.67 0.72 0.80 0.72 0.67 0.70 0.73 0.75 0.69 0.73 0.69 0.68 0.70 0.71 0.59 0.56 0.54 0.44 0.41 0.43 0.46 0.40 0.46 0.49 0.56 0.69 0.97 1.22 1.18 1.05 0.92 0.76 0.68
0.47 0.57 0.62 0.58 0.61 0.60 0.56 0.59 0.62 0.62 0.66 0.69 0.73 0.66 0.60 0.60 0.62 0.74 0.72 0.77 0.69 0.71 0.79 0.71 0.64 0.65 0.64 0.54 0.44 0.45 0.47 0.42 0.47 0.53 0.58 0.71 0.87 1.20 1.43 1.35 1.24 1.06 0.85
0.43 0.57 0.68 0.66 0.69 0.65 0.60 0.63 0.66 0.66 0.63 0.65 0.69 0.62 0.58 0.61 0.62 0.74 0.78 0.77 0.74 0.77 0.81 0.83 0.82 0.77 0.68 0.59 0.51 0.48 0.46 0.46 0.50 0.53 0.55 0.70 0.70 0.76 1.09 1.40 1.48 1.40 1.13
0.40 0.51 0.63 0.65 0.70 0.73 0.72 0.72 0.69 0.65 0.66 0.72 0.75 0.70 0.66 0.64 0.67 0.87 0.92 0.80 0.85 0.95 0.99 1.00 0.96 0.87 0.77 0.72 0.71 0.61 0.52 0.49 0.52 0.56 0.56 0.59 0.56 0.49 0.57 0.73 0.89 1.08 1.25
0.41 0.47 0.52 0.58 0.78 0.81 0.77 0.83 0.83 0.80 0.86 0.89 0.92 0.89 0.84 0.81 0.89 1.06 1.13 1.04 1.01 1.15 1.12 1.01 1.01 1.01 0.91 0.88 0.87 0.83 0.67 0.57 0.56 0.55 0.61 0.69 0.66 0.57 0.57 0.50 0.54 0.64 0.91
0.34 0.39 0.46 0.55 0.67 0.79 0.94 1.02 1.10 1.11 1.11 1.23 1.30 1.29 1.12 1.07 1.13 1.28 1.37 1.33 1.29 1.39 1.38 1.25 1.31 1.30 1.18 1.21 1.11 0.98 0.85 0.78 0.74 0.70 0.69 0.75 0.77 0.67 0.65 0.54 0.50 0.44 0.56
0.25 0.31 0.37 0.54 0.70 0.86 0.98 1.13 1.38 1.54 1.64 1.63 1.63 1.70 1.62 1.43 1.52 1.63 1.59 1.80 1.87 1.84 1.83 1.76 1.86 1.87 1.59 1.43 1.65 1.60 1.19 0.91 0.81 0.82 0.82 0.81 0.81 0.78 0.76 0.71 0.59 0.48 0.41
0.16 0.22 0.30 0.44 0.67 0.92 1.15 1.33 1.52 1.84 2.00 2.00 2.06 2.01 1.96 1.84 1.86 1.79 1.86 2.06 2.11 2.20 2.28 2.12 2.22 2.27 1.95 1.65 1.99 2.35 1.85 1.44 0.91 0.72 0.79 0.85 0.90 0.88 0.84 0.74 0.69 0.61 0.49
0.09 0.14 0.21 0.34 0.57 0.88 1.19 1.45 1.64 1.88 2.14 2.24 2.15 2.10 2.13 2.21 2.26 2.14 2.09 2.22 2.23 2.29 2.45 2.48 2.42 2.46 2.35 2.06 2.03 2.41 2.22 1.88 1.48 0.92 0.80 0.86 0.96 0.99 0.99 0.97 0.87 0.78 0.65
0.10 0.13 0.17 0.32 0.48 0.72 0.99 1.32 1.57 1.84 2.15 2.22 2.20 2.17 2.21 2.33 2.42 2.37 2.31 2.38 2.37 2.32 2.41 2.48 2.47 2.64 2.78 2.49 2.26 2.03 1.90 1.89 1.86 1.42 1.00 0.91 1.02 1.08 1.11 1.01 0.99 0.98 0.92
0.15 0.18 0.24 0.38 0.53 0.74 0.98 1.30 1.63 1.82 1.99 2.19 2.20 2.11 2.05 2.11 2.13 2.11 2.22 2.37 2.37 2.34 2.35 2.51 2.63 2.79 2.74 2.64 2.49 2.34 2.15 1.95 1.60 1.63 1.50 1.24 1.17 1.07 1.13 1.21 1.16 1.16 1.11
0.24 0.30 0.38 0.50 0.72 0.87 0.97 1.12 1.29 1.50 1.78 1.92 2.02 2.06 2.07 2.06 1.94 1.86 1.95 2.05 2.13 2.18 2.17 2.21 2.36 2.50 2.65 2.77 2.68 2.50 2.36 2.21 2.01 1.87 1.58 1.43 1.47 1.30 1.18 1.17 1.20 1.22 1.27

GEFSSE_prec_meanprecacc_138.txt.gz
Total_Precipitation_Accumulation
0.55 0.32 0.64 0.71 0.59 0.54 0.60 0.68 0.68 0.70 0.77 0.82 0.77 0.70 0.65 0.50 0.44 0.39 0.34 0.29 0.35 0.45 0.43 0.39 0.35 0.30 0.23 0.21 0.25 0.32 0.40 0.48 0.54 0.57 0.65 0.69 0.66 0.70 0.85 1.04 1.14 1.34 0.90
0.52 0.38 0.67 0.75 0.62 0.56 0.58 0.61 0.65 0.65 0.68 0.72 0.74 0.73 0.60 0.46 0.42 0.37 0.34 0.31 0.33 0.36 0.38 0.40 0.41 0.36 0.29 0.30 0.34 0.38 0.41 0.46 0.57 0.61 0.77 0.80 0.72 0.74 0.71 0.82 1.01 1.15 0.86
0.52 0.44 0.56 0.69 0.60 0.55 0.55 0.59 0.66 0.68 0.69 0.72 0.76 0.80 0.59 0.47 0.45 0.40 0.39 0.39 0.36 0.31 0.34 0.41 0.46 0.44 0.36 0.38 0.42 0.44 0.47 0.50 0.59 0.67 1.02 1.50 1.02 0.77 0.76 0.82 0.85 0.78 0.83
0.61 0.57 0.65 0.80 0.70 0.59 0.58 0.67 0.74 0.81 0.83 0.89 0.88 0.76 0.56 0.50 0.50 0.50 0.51 0.51 0.43 0.33 0.34 0.35 0.41 0.41 0.37 0.40 0.44 0.42 0.49 0.55 0.64 0.75 1.10 1.52 1.39 1.04 0.94 0.93 0.86 0.73 0.84
0.62 0.67 0.86 0.94 0.81 0.72 0.69 0.74 0.86 0.95 0.93 0.96 0.91 0.67 0.56 0.54 0.57 0.58 0.60 0.55 0.46 0.40 0.36 0.36 0.38 0.36 0.36 0.37 0.41 0.44 0.50 0.61 0.78 0.85 1.14 1.46 1.64 1.15 0.93 1.02 1.02 0.85 0.90
0.55 0.57 0.74 0.89 0.81 0.75 0.78 0.84 0.85 0.80 0.82 0.90 0.83 0.66 0.54 0.60 0.61 0.62 0.57 0.50 0.49 0.48 0.43 0.42 0.40 0.38 0.39 0.36 0.41 0.46 0.54 0.65 0.76 0.94 1.15 1.50 1.57 1.07 0.87 1.00 1.07 1.03 1.00
0.61 0.55 0.63 0.77 0.73 0.71 0.77 0.85 0.86 0.78 0.81 0.85 0.83 0.76 0.58 0.58 0.62 0.65 0.57 0.50 0.48 0.49 0.47 0.46 0.43 0.40 0.38 0.38 0.39 0.44 0.54 0.53 0.66 0.91 1.10 1.46 1.25 0.86 0.75 0.90 1.14 1.25 1.14
0.69 0.64 0.59 0.69 0.68 0.66 0.71 0.78 0.82 0.80 0.88 0.87 0.76 0.70 0.66 0.58 0.59 0.60 0.56 0.56 0.53 0.53 0.51 0.49 0.43 0.39 0.40 0.40 0.40 0.42 0.48 0.43 0.44 0.67 0.88 1.20 1.10 0.95 0.73 0.75 0.97 1.17 1.21
0.77 0.74 0.67 0.66 0.66 0.71 0.80 0.80 0.82 0.88 0.98 0.95 0.77 0.70 0.71 0.60 0.53 0.52 0.53 0.55 0.54 0.57 0.60 0.54 0.44 0.38 0.42 0.44 0.43 0.42 0.44 0.45 0.45 0.58 0.68 0.94 0.96 0.96 0.76 0.74 0.86 1.00 1.17
0.73 0.69 0.62 0.61 0.64 0.70 0.80 0.84 0.85 0.85 0.94 0.93 0.82 0.81 0.80 0.65 0.54 0.54 0.53 0.57 0.60 0.62 0.68 0.64 0.54 0.47 0.46 0.48 0.46 0.43 0.43 0.39 0.42 0.48 0.63 0.67 0.85 0.88 0.71 0.68 0.74 0.82 0.90
0.64 0.64 0.61 0.58 0.62 0.68 0.77 0.79 0.89 0.92 0.96 0.88 0.82 0.86 0.77 0.57 0.53 0.56 0.50 0.62 0.72 0.85 0.86 0.78 0.68 0.60 0.53 0.46 0.44 0.44 0.35 0.30 0.44 0.47 0.56 0.66 0.85 0.84 0.70 0.64 0.69 0.66 0.67
0.66 0.66 0.63 0.67 0.65 0.65 0.69 0.93 1.10 0.98 0.89 0.78 0.81 0.78 0.76 0.73 0.70 0.52 0.53 0.68 0.75 0.84 0.86 0.80 0.76 0.63 0.46 0.34 0.38 0.40 0.26 0.28 0.38 0.41 0.43 0.65 0.85 0.89 0.78 0.68 0.64 0.59 0.56
0.66 0.67 0.62 0.60 0.55 0.55 0.70 0.87 1.06 1.11 1.07 1.04 0.90 0.89 0.85 0.76 0.65 0.51 0.49 0.54 0.59 0.68 0.66 0.72 0.70 0.49 0.39 0.38 0.41 0.34 0.28 0.31 0.36 0.40 0.49 0.76 0.92 0.90 0.85 0.75 0.67 0.60 0.55
0.58 0.61 0.57 0.54 0.51 0.49 0.50 0.61 0.76 0.83 0.82 0.84 0.85 0.79 0.80 0.81 0.74 0.64 0.58 0.62 0.65 0.63 0.69 0.74 0.71 0.57 0.48 0.41 0.39 0.39 0.37 0.35 0.41 0.50 0.57 0.75 0.98 1.00 0.97 0.87 0.79 0.69 0.60
0.52 0.53 0.55 0.58 0.56 0.61 0.60 0.57 0.56 0.62 0.67 0.72 0.80 0.72 0.67 0.70 0.73 0.75 0.69 0.73 0.69 0.68 0.71 0.72 0.59 0.57 0.56 0.47 0.43 0.45 0.49 0.43 0.50 0.52 0.59 0.71 1.01 1.28 1.27 1.14 0.99 0.83 0.74
0.48 0.58 0.62 0.59 0.62 0.60 0.56 0.59 0.62 0.62 0.66 0.69 0.73 0.66 0.60 0.60 0.62 0.74 0.72 0.77 0.69 0.71 0.79 0.71 0.64 0.66 0.65 0.56 0.46 0.48 0.49 0.46 0.50 0.55 0.61 0.75 0.90 1.25 1.51 1.44 1.31 1.14 0.91
0.44 0.57 0.69 0.66 0.69 0.65 0.60 0.63 0.66 0.66 0.63 0.65 0.69 0.62 0.58 0.61 0.62 0.74 0.78 0.77 0.74 0.78 0.81 0.83 0.83 0.78 0.69 0.60 0.53 0.50 0.49 0.49 0.52 0.56 0.57 0.73 0.76 0.82 1.15 1.47 1.56 1.47 1.20
0.40 0.51 0.63 0.65 0.70 0.73 0.72 0.72 0.69 0.65 0.66 0.72 0.75 0.70 0.66 0.64 0.67 0.87 0.92 0.81 0.85 0.96 0.99 1.01 0.97 0.88 0.78 0.74 0.72 0.64 0.55 0.53 0.54 0.58 0.58 0.62 0.62 0.56 0.63 0.80 0.98 1.16 1.33
0.41 0.47 0.52 0.58 0.78 0.81 0.77 0.83 0.83 0.80 0.86 0.89 0.92 0.89 0.84 0.81 0.89 1.06 1.13 1.04 1.01 1.16 1.12 1.02 1.02 1.02 0.92 0.91 0.89 0.86 0.71 0.61 0.60 0.58 0.65 0.73 0.71 0.65 0.65 0.55 0.60 0.71 0.98
0.34 0.39 0.46 0.55 0.67 0.79 0.94 1.02 1.10 1.11 1.11 1.23 1.30 1.29 1.12 1.07 1.13 1.28 1.37 1.34 1.29 1.40 1.38 1.26 1.32 1.31 1.20 1.24 1.13 1.01 0.88 0.81 0.78 0.74 0.73 0.80 0.83 0.74 0.73 0.62 0.61 0.52 0.60
0.25 0.31 0.37 0.54 0.70 0.86 0.98 1.13 1.38 1.54 1.64 1.63 1.63 1.70 1.62 1.43 1.52 1.63 1.60 1.81 1.87 1.84 1.84 1.77 1.88 1.88 1.61 1.45 1.68 1.63 1.22 0.95 0.84 0.85 0.88 0.89 0.89 0.86 0.86 0.81 0.74 0.58 0.47
0.16 0.22 0.30 0.44 0.67 0.92 1.15 1.33 1.52 1.84 2.00 2.00 2.06 2.01 1.96 1.85 1.86 1.79 1.87 2.07 2.11 2.21 2.30 2.13 2.24 2.29 1.97 1.67 2.02 2.40 1.90 1.48 0.95 0.77 0.85 0.92 0.98 0.97 0.92 0.82 0.79 0.73 0.57
0.09 0.14 0.21 0.34 0.57 0.88 1.19 1.45 1.64 1.88 2.14 2.24 2.15 2.10 2.13 2.21 2.26 2.14 2.10 2.22 2.23 2.30 2.47 2.50 2.44 2.50 2.39 2.09 2.06 2.44 2.27 1.94 1.52 0.96 0.85 0.92 1.03 1.06 1.06 1.03 0.94 0.86 0.73
0.10 0.13 0.17 0.32 0.48 0.72 0.99 1.32 1.57 1.84 2.15 2.22 2.20 2.17 2.21 2.33 2.42 2.37 2.32 2.38 2.38 2.32 2.43 2.51 2.49 2.67 2.81 2.52 2.28 2.05 1.94 1.93 1.90 1.46 1.04 0.96 1.08 1.14 1.17 1.08 1.05 1.04 0.99
0.15 0.18 0.25 0.38 0.54 0.74 0.98 1.30 1.63 1.82 1.99 2.19 2.20 2.11 2.05 2.11 2.13 2.12 2.22 2.38 2.38 2.35 2.36 2.53 2.64 2.81 2.76 2.67 2.51 2.37 2.19 1.99 1.64 1.68 1.55 1.28 1.23 1.13 1.18 1.26 1.22 1.22 1.19
0.24 0.30 0.38 0.51 0.72 0.87 0.97 1.12 1.29 1.50 1.78 1.92 2.02 2.06 2.07 2.06 1.94 1.87 1.96 2.06 2.15 2.20 2.18 2.23 2.38 2.52 2.67 2.80 2.72 2.53 2.39 2.25 2.05 1.91 1.62 1.46 1.52 1.35 1.22 1.20 1.24 1.28 1.34

GEFSSE_prec_meanprecacc_144.txt.gz
Total_Precipitation_Accumulation
0.63 0.37 0.66 0.73 0.62 0.59 0.64 0.73 0.73 0.77 0.84 0.90 0.84 0.76 0.71 0.56 0.49 0.43 0.38 0.32 0.38 0.48 0.47 0.42 0.37 0.32 0.25 0.22 0.26 0.34 0.41 0.49 0.54 0.57 0.66 0.70 0.68 0.71 0.87 1.08 1.24 1.42 0.95
0.56 0.40 0.69 0.78 0.65 0.60 0.61 0.65 0.71 0.71 0.75 0.78 0.79 0.78 0.64 0.49 0.47 0.42 0.38 0.34 0.35 0.39 0.41 0.44 0.44 0.38 0.31 0.32 0.35 0.40 0.43 0.47 0.58 0.62 0.79 0.85 0.77 0.76 0.73 0.85 1.07 1.21 0.93
0.54 0.45 0.58 0.73 0.64 0.59 0.59 0.62 0.71 0.74 0.75 0.77 0.81 0.86 0.64 0.51 0.49 0.44 0.44 0.43 0.39 0.34 0.37 0.46 0.51 0.47 0.39 0.40 0.44 0.47 0.49 0.51 0.60 0.70 1.08 1.62 1.14 0.81 0.78 0.87 0.93 0.90 0.94
0.63 0.58 0.67 0.83 0.74 0.64 0.62 0.72 0.79 0.85 0.87 0.93 0.91 0.80 0.61 0.56 0.55 0.54 0.56 0.57 0.49 0.37 0.37 0.39 0.45 0.45 0.41 0.44 0.47 0.45 0.51 0.56 0.66 0.79 1.16 1.62 1.52 1.09 0.96 0.99 0.95 0.83 0.93
0.64 0.69 0.87 0.98 0.84 0.75 0.72 0.78 0.89 0.97 0.95 0.98 0.92 0.69 0.59 0.57 0.59 0.60 0.63 0.60 0.53 0.47 0.42 0.40 0.41 0.39 0.39 0.40 0.44 0.47 0.53 0.63 0.81 0.89 1.20 1.55 1.79 1.23 0.95 1.06 1.09 0.94 0.98
0.59 0.60 0.76 0.91 0.83 0.78 0.81 0.87 0.87 0.82 0.83 0.91 0.84 0.67 0.56 0.61 0.61 0.62 0.59 0.53 0.53 0.53 0.50 0.47 0.43 0.41 0.42 0.38 0.42 0.49 0.57 0.68 0.80 1.01 1.25 1.59 1.72 1.17 0.90 1.03 1.13 1.12 1.10
0.65 0.58 0.65 0.80 0.76 0.74 0.80 0.88 0.89 0.80 0.83 0.86 0.83 0.76 0.59 0.58 0.63 0.66 0.58 0.51 0.50 0.51 0.49 0.49 0.46 0.42 0.40 0.40 0.41 0.45 0.56 0.55 0.69 0.98 1.18 1.56 1.36 0.93 0.78 0.92 1.18 1.31 1.21
0.72 0.66 0.62 0.72 0.72 0.69 0.73 0.80 0.83 0.81 0.89 0.87 0.77 0.71 0.66 0.58 0.59 0.60 0.56 0.56 0.53 0.53 0.53 0.51 0.45 0.41 0.41 0.42 0.41 0.43 0.50 0.44 0.46 0.71 0.92 1.28 1.17 1.00 0.76 0.79 1.02 1.22 1.26
0.78 0.76 0.71 0.70 0.69 0.72 0.81 0.80 0.82 0.88 0.99 0.96 0.78 0.71 0.71 0.60 0.53 0.52 0.53 0.55 0.55 0.57 0.60 0.55 0.45 0.39 0.42 0.45 0.43 0.43 0.45 0.46 0.48 0.61 0.72 1.00 1.02 1.01 0.80 0.78 0.91 1.04 1.21
0.74 0.71 0.67 0.65 0.68 0.72 0.81 0.84 0.85 0.85 0.94 0.93 0.82 0.81 0.80 0.65 0.54 0.54 0.53 0.57 0.60 0.63 0.68 0.64 0.55 0.48 0.47 0.49 0.47 0.44 0.44 0.40 0.44 0.51 0.69 0.74 0.91 0.93 0.75 0.72 0.78 0.85 0.93
0.67 0.68 0.65 0.62 0.65 0.71 0.79 0.80 0.90 0.92 0.96 0.89 0.82 0.86 0.77 0.57 0.53 0.56 0.50 0.62 0.73 0.86 0.87 0.78 0.69 0.61 0.55 0.48 0.45 0.45 0.36 0.31 0.47 0.53 0.65 0.74 0.90 0.89 0.74 0.69 0.73 0.70 0.70
0.69 0.69 0.65 0.68 0.66 0.65 0.70 0.93 1.10 0.98 0.89 0.78 0.81 0.78 0.76 0.73 0.70 0.52 0.53 0.68 0.75 0.84 0.87 0.81 0.77 0.63 0.46 0.36 0.41 0.41 0.26 0.29 0.40 0.44 0.50 0.72 0.90 0.94 0.83 0.73 0.68 0.63 0.60
0.67 0.68 0.63 0.61 0.55 0.55 0.70 0.87 1.06 1.11 1.07 1.04 0.90 0.89 0.85 0.76 0.65 0.51 0.49 0.54 0.59 0.68 0.67 0.73 0.71 0.50 0.40 0.39 0.43 0.35 0.29 0.32 0.38 0.43 0.55 0.80 0.96 0.95 0.90 0.79 0.71 0.64 0.59
0.58 0.61 0.57 0.54 0.51 0.49 0.50 0.61 0.76 0.83 0.82 0.84 0.85 0.79 0.80 0.81 0.74 0.64 0.58 0.62 0.65 0.63 0.69 0.75 0.73 0.60 0.51 0.43 0.40 0.39 0.38 0.37 0.43 0.54 0.63 0.78 1.00 1.03 1.01 0.92 0.83 0.73 0.64
0.52 0.54 0.56 0.58 0.56 0.61 0.60 0.57 0.56 0.62 0.67 0.72 0.80 0.72 0.67 0.70 0.73 0.75 0.69 0.73 0.70 0.68 0.71 0.72 0.61 0.60 0.59 0.50 0.45 0.46 0.50 0.44 0.53 0.56 0.63 0.73 1.03 1.32 1.30 1.18 1.05 0.89 0.78
0.49 0.59 0.62 0.59 0.62 0.60 0.56 0.59 0.62 0.62 0.66 0.69 0.73 0.66 0.60 0.60 0.62 0.74 0.73 0.78 0.69 0.71 0.79 0.72 0.65 0.67 0.67 0.58 0.49 0.50 0.51 0.47 0.52 0.58 0.66 0.79 0.92 1.27 1.54 1.49 1.38 1.21 0.97
0.44 0.57 0.69 0.66 0.69 0.65 0.60 0.63 0.66 0.66 0.63 0.65 0.69 0.62 0.58 0.61 0.62 0.74 0.78 0.77 0.75 0.78 0.81 0.84 0.83 0.78 0.70 0.62 0.54 0.52 0.51 0.51 0.54 0.58 0.61 0.77 0.80 0.84 1.18 1.53 1.63 1.55 1.27
0.40 0.51 0.63 0.65 0.70 0.73 0.72 0.72 0.69 0.65 0.66 0.72 0.75 0.70 0.66 0.64 0.67 0.87 0.92 0.81 0.86 0.97 1.00 1.01 0.97 0.89 0.79 0.75 0.74 0.66 0.58 0.55 0.57 0.60 0.62 0.67 0.69 0.64 0.69 0.83 1.04 1.23 1.41
0.41 0.47 0.52 0.58 0.78 0.81 0.77 0.83 0.83 0.80 0.86 0.89 0.92 0.89 0.84 0.81 0.89 1.06 1.13 1.04 1.02 1.17 1.14 1.03 1.03 1.03 0.94 0.92 0.91 0.88 0.73 0.64 0.64 0.62 0.68 0.78 0.77 0.75 0.76 0.60 0.64 0.76 1.03
0.34 0.40 0.46 0.55 0.67 0.79 0.94 1.02 1.10 1.11 1.11 1.23 1.30 1.29 1.12 1.07 1.13 1.28 1.38 1.34 1.30 1.40 1.39 1.27 1.35 1.34 1.24 1.26 1.15 1.04 0.92 0.84 0.81 0.79 0.78 0.85 0.90 0.81 0.83 0.71 0.67 0.56 0.63
0.25 0.31 0.37 0.54 0.70 0.86 0.98 1.13 1.38 1.54 1.64 1.63 1.63 1.70 1.62 1.44 1.52 1.63 1.60 1.81 1.89 1.86 1.85 1.80 1.91 1.93 1.66 1.48 1.72 1.68 1.27 1.00 0.89 0.90 0.94 0.96 0.97 0.95 0.94 0.89 0.82 0.65 0.53
0.16 0.22 0.30 0.44 0.67 0.92 1.15 1.33 1.52 1.84 2.00 2.00 2.06 2.01 1.96 1.85 1.87 1.79 1.87 2.08 2.13 2.23 2.32 2.16 2.27 2.33 2.02 1.73 2.08 2.47 1.97 1.56 1.01 0.81 0.90 0.98 1.05 1.05 1.00 0.89 0.86 0.78 0.64
0.09 0.14 0.21 0.34 0.57 0.88 1.19 1.45 1.64 1.88 2.14 2.24 2.15 2.10 2.13 2.21 2.26 2.15 2.11 2.23 2.24 2.32 2.51 2.54 2.48 2.55 2.46 2.15 2.11 2.50 2.35 2.02 1.59 1.02 0.90 0.98 1.09 1.13 1.13 1.10 0.99 0.91 0.80
0.10 0.13 0.17 0.32 0.48 0.72 0.99 1.32 1.57 1.84 2.15 2.22 2.20 2.17 2.21 2.33 2.42 2.38 2.33 2.39 2.39 2.35 2.47 2.55 2.53 2.72 2.87 2.58 2.33 2.10 2.01 2.01 1.98 1.53 1.11 1.04 1.16 1.21 1.22 1.14 1.10 1.10 1.07
0.15 0.18 0.25 0.38 0.54 0.74 0.98 1.30 1.63 1.82 1.99 2.19 2.20 2.11 2.05 2.12 2.14 2.12 2.24 2.39 2.41 2.38 2.39 2.57 2.68 2.85 2.83 2.73 2.57 2.43 2.24 2.05 1.71 1.76 1.62 1.34 1.29 1.19 1.24 1.31 1.28 1.29 1.27
0.25 0.30 0.38 0.51 0.72 0.87 0.97 1.12 1.29 1.50 1.78 1.92 2.02 2.06 2.07 2.07 1.95 1.87 1.98 2.08 2.18 2.23 2.21 2.26 2.42 2.55 2.72 2.85 2.77 2.58 2.46 2.32 2.12 1.99 1.71 1.53 1.57 1.41 1.26 1.25 1.28 1.32 1.41

GEFSSE_prec_meanprecacc_150.txt.gz
Total_Precipitation_Accumulation
0.72 0.46 0.77 0.79 0.66 0.63 0.68 0.75 0.76 0.80 0.86 0.91 0.85 0.77 0.72 0.57 0.50 0.44 0.39 0.33 0.39 0.49 0.47 0.42 0.37 0.33 0.26 0.23 0.27 0.34 0.42 0.50 0.56 0.59 0.69 0.72 0.69 0.72 0.88 1.10 1.26 1.43 1.00
0.61 0.46 0.77 0.84 0.68 0.62 0.64 0.66 0.73 0.73 0.77 0.80 0.80 0.79 0.64 0.50 0.47 0.43 0.39 0.35 0.36 0.40 0.42 0.44 0.44 0.38 0.31 0.32 0.36 0.41 0.44 0.48 0.59 0.64 0.82 0.88 0.80 0.79 0.75 0.88 1.10 1.25 0.99
0.57 0.49 0.62 0.78 0.67 0.61 0.61 0.64 0.72 0.75 0.76 0.78 0.81 0.87 0.65 0.52 0.49 0.44 0.44 0.43 0.40 0.34 0.38 0.47 0.51 0.47 0.40 0.41 0.45 0.47 0.49 0.52 0.63 0.73 1.11 1.65 1.16 0.83 0.81 0.91 0.97 0.94 1.00
0.64 0.59 0.69 0.87 0.77 0.66 0.64 0.73 0.80 0.85 0.87 0.93 0.93 0.81 0.62 0.56 0.55 0.54 0.56 0.57 0.49 0.37 0.37 0.39 0.45 0.45 0.42 0.45 0.48 0.45 0.51 0.57 0.68 0.81 1.17 1.64 1.55 1.13 1.00 1.03 1.00 0.87 0.98
0.66 0.70 0.92 1.02 0.86 0.77 0.74 0.79 0.90 0.98 0.96 0.98 0.93 0.70 0.59 0.57 0.59 0.60 0.64 0.60 0.53 0.47 0.42 0.40 0.41 0.39 0.39 0.41 0.45 0.48 0.54 0.64 0.83 0.90 1.21 1.56 1.81 1.29 1.00 1.11 1.17 1.01 1.03
0.63 0.63 0.81 0.97 0.86 0.80 0.82 0.89 0.88 0.83 0.84 0.92 0.84 0.67 0.56 0.61 0.61 0.62 0.59 0.53 0.54 0.54 0.50 0.48 0.44 0.41 0.42 0.38 0.42 0.49 0.58 0.69 0.82 1.02 1.27 1.61 1.74 1.23 0.96 1.09 1.22 1.22 1.17
0.68 0.61 0.69 0.84 0.79 0.76 0.82 0.90 0.90 0.81 0.83 0.86 0.83 0.77 0.59 0.58 0.63 0.66 0.58 0.51 0.50 0.51 0.49 0.49 0.46 0.43 0.40 0.40 0.41 0.46 0.57 0.56 0.71 1.00 1.20 1.57 1.38 0.99 0.84 0.99 1.26 1.38 1.28
0.74 0.69 0.65 0.75 0.75 0.71 0.74 0.80 0.84 0.81 0.89 0.88 0.77 0.71 0.66 0.58 0.59 0.60 0.56 0.56 0.53 0.53 0.53 0.51 0.45 0.41 0.42 0.42 0.41 0.44 0.50 0.45 0.48 0.72 0.94 1.29 1.22 1.07 0.82 0.84 1.07 1.27 1.32
0.80 0.77 0.74 0.72 0.72 0.75 0.83 0.81 0.82 0.88 0.99 0.96 0.78 0.71 0.71 0.60 0.53 0.52 0.54 0.55 0.55 0.57 0.61 0.55 0.45 0.39 0.43 0.45 0.43 0.43 0.46 0.47 0.50 0.63 0.75 1.03 1.08 1.07 0.86 0.82 0.94 1.08 1.25
0.76 0.73 0.69 0.67 0.70 0.73 0.82 0.85 0.85 0.85 0.94 0.93 0.82 0.81 0.80 0.65 0.54 0.54 0.53 0.57 0.60 0.63 0.68 0.64 0.55 0.48 0.48 0.49 0.47 0.45 0.44 0.41 0.45 0.53 0.72 0.78 0.97 0.98 0.80 0.76 0.82 0.88 0.97
0.68 0.69 0.67 0.64 0.66 0.72 0.79 0.80 0.90 0.93 0.96 0.89 0.82 0.86 0.77 0.57 0.53 0.56 0.51 0.63 0.73 0.86 0.87 0.79 0.69 0.61 0.56 0.48 0.46 0.46 0.37 0.32 0.48 0.55 0.67 0.79 0.95 0.95 0.79 0.74 0.78 0.74 0.74
0.70 0.70 0.67 0.69 0.67 0.66 0.70 0.93 1.10 0.98 0.89 0.78 0.81 0.78 0.76 0.73 0.70 0.52 0.53 0.68 0.75 0.84 0.87 0.81 0.77 0.63 0.47 0.36 0.41 0.42 0.27 0.30 0.41 0.47 0.52 0.77 0.95 1.00 0.89 0.77 0.73 0.67 0.63
0.68 0.68 0.63 0.61 0.56 0.56 0.70 0.87 1.06 1.11 1.07 1.04 0.90 0.89 0.85 0.76 0.65 0.51 0.49 0.54 0.59 0.68 0.67 0.73 0.71 0.50 0.40 0.40 0.43 0.36 0.30 0.34 0.41 0.47 0.59 0.86 1.02 1.02 0.96 0.83 0.76 0.69 0.62
0.58 0.61 0.57 0.55 0.52 0.50 0.50 0.61 0.76 0.83 0.82 0.84 0.85 0.79 0.80 0.81 0.74 0.64 0.58 0.62 0.65 0.63 0.69 0.75 0.73 0.60 0.51 0.43 0.41 0.40 0.40 0.39 0.45 0.57 0.66 0.84 1.06 1.09 1.06 0.95 0.88 0.79 0.68
0.52 0.54 0.56 0.58 0.56 0.61 0.60 0.57 0.56 0.62 0.67 0.72 0.80 0.72 0.67 0.70 0.73 0.75 0.69 0.73 0.70 0.68 0.71 0.72 0.61 0.60 0.59 0.50 0.46 0.47 0.52 0.47 0.56 0.59 0.67 0.78 1.08 1.38 1.37 1.23 1.09 0.93 0.82
0.49 0.59 0.63 0.59 0.62 0.60 0.56 0.59 0.62 0.62 0.66 0.69 0.73 0.66 0.60 0.60 0.62 0.74 0.73 0.78 0.69 0.71 0.79 0.72 0.65 0.67 0.67 0.58 0.49 0.51 0.53 0.50 0.55 0.62 0.69 0.82 0.96 1.31 1.60 1.57 1.44 1.26 1.03
0.45 0.58 0.69 0.67 0.69 0.65 0.60 0.63 0.66 0.66 0.63 0.65 0.69 0.62 0.58 0.61 0.62 0.74 0.78 0.77 0.75 0.78 0.81 0.84 0.83 0.78 0.70 0.62 0.55 0.53 0.52 0.53 0.57 0.61 0.64 0.80 0.82 0.87 1.22 1.59 1.70 1.60 1.35
0.42 0.52 0.64 0.65 0.70 0.73 0.72 0.72 0.70 0.65 0.67 0.72 0.75 0.70 0.66 0.64 0.67 0.87 0.92 0.81 0.86 0.97 1.00 1.01 0.97 0.89 0.79 0.76 0.74 0.67 0.59 0.56 0.59 0.63 0.65 0.69 0.72 0.67 0.72 0.87 1.10 1.29 1.48
0.43 0.48 0.52 0.58 0.78 0.82 0.78 0.83 0.84 0.80 0.86 0.89 0.92 0.89 0.84 0.81 0.89 1.06 1.13 1.04 1.02 1.17 1.14 1.03 1.03 1.04 0.94 0.94 0.92 0.90 0.74 0.65 0.65 0.64 0.72 0.81 0.80 0.78 0.79 0.63 0.68 0.81 1.10
0.36 0.40 0.46 0.55 0.67 0.80 0.95 1.03 1.11 1.11 1.11 1.23 1.30 1.29 1.12 1.07 1.13 1.28 1.38 1.34 1.30 1.41 1.39 1.27 1.35 1.35 1.24 1.27 1.16 1.05 0.94 0.86 0.82 0.80 0.80 0.88 0.94 0.85 0.87 0.76 0.70 0.59 0.68
0.26 0.31 0.37 0.54 0.70 0.86 0.99 1.13 1.38 1.54 1.64 1.63 1.63 1.70 1.62 1.44 1.52 1.63 1.60 1.82 1.89 1.86 1.85 1.80 1.92 1.93 1.66 1.48 1.73 1.69 1.28 1.01 0.90 0.91 0.96 0.99 1.03 1.03 1.00 0.93 0.85 0.68 0.56
0.16 0.22 0.30 0.44 0.68 0.92 1.15 1.33 1.52 1.84 2.00 2.00 2.06 2.01 1.96 1.85 1.87 1.79 1.87 2.08 2.13 2.23 2.32 2.16 2.28 2.33 2.03 1.73 2.09 2.48 1.98 1.57 1.03 0.84 0.93 1.02 1.11 1.14 1.08 0.94 0.90 0.81 0.68
0.10 0.14 0.21 0.34 0.57 0.88 1.19 1.45 1.64 1.88 2.14 2.24 2.15 2.10 2.13 2.21 2.26 2.15 2.11 2.23 2.25 2.32 2.51 2.54 2.49 2.55 2.46 2.16 2.12 2.51 2.36 2.03 1.60 1.05 0.94 1.02 1.15 1.23 1.24 1.19 1.05 0.95 0.84
0.11 0.13 0.17 0.32 0.48 0.72 0.99 1.32 1.57 1.84 2.15 2.22 2.20 2.17 2.21 2.33 2.42 2.38 2.33 2.39 2.39 2.35 2.47 2.56 2.53 2.73 2.88 2.59 2.34 2.11 2.01 2.02 1.99 1.54 1.13 1.07 1.23 1.29 1.32 1.22 1.17 1.16 1.13
0.15 0.18 0.25 0.38 0.54 0.74 0.98 1.30 1.63 1.82 1.99 2.19 2.20 2.11 2.05 2.12 2.14 2.12 2.24 2.39 2.41 2.38 2.39 2.57 2.68 2.85 2.83 2.73 2.58 2.44 2.25 2.06 1.72 1.78 1.63 1.37 1.35 1.26 1.32 1.40 1.37 1.37 1.34
0.25 0.30 0.38 0.51 0.72 0.87 0.97 1.12 1.29 1.50 1.78 1.92 2.02 2.06 2.07 2.07 1.95 1.87 1.98 2.09 2.18 2.23 2.21 2.27 2.42 2.56 2.73 2.86 2.78 2.59 2.47 2.33 2.13 2.00 1.72 1.55 1.60 1.43 1.30 1.31 1.34 1.39 1.49

GEFSSE_prec_meanprecacc_156.txt.gz
Total_Precipitation_Accumulation
0.75 0.54 0.95 0.97 0.80 0.74 0.78 0.84 0.85 0.88 0.92 0.95 0.89 0.80 0.76 0.63 0.55 0.47 0.41 0.34 0.40 0.50 0.48 0.43 0.38 0.33 0.26 0.24 0.28 0.35 0.44 0.52 0.57 0.60 0.70 0.74 0.70 0.74 0.92 1.13 1.30 1.47 1.08
0.62 0.53 0.94 1.00 0.80 0.71 0.72 0.74 0.80 0.80 0.82 0.84 0.83 0.83 0.68 0.54 0.50 0.46 0.42 0.37 0.38 0.41 0.43 0.45 0.45 0.39 0.32 0.33 0.37 0.42 0.45 0.49 0.60 0.66 0.83 0.89 0.82 0.82 0.79 0.90 1.12 1.27 1.04
0.59 0.56 0.76 0.92 0.77 0.68 0.70 0.73 0.79 0.80 0.80 0.83 0.85 0.89 0.68 0.54 0.52 0.48 0.46 0.45 0.42 0.36 0.38 0.48 0.53 0.49 0.41 0.42 0.46 0.49 0.51 0.54 0.64 0.75 1.12 1.65 1.17 0.87 0.86 0.94 1.00 0.96 1.03
0.67 0.66 0.78 0.98 0.85 0.73 0.72 0.81 0.86 0.89 0.90 0.97 0.96 0.83 0.63 0.58 0.57 0.56 0.57 0.58 0.51 0.39 0.38 0.41 0.46 0.46 0.43 0.47 0.50 0.48 0.54 0.59 0.70 0.82 1.17 1.64 1.55 1.17 1.04 1.09 1.04 0.89 1.03
0.71 0.77 1.03 1.12 0.94 0.83 0.78 0.85 0.96 1.02 0.99 1.02 0.96 0.72 0.61 0.59 0.60 0.61 0.65 0.63 0.57 0.50 0.44 0.41 0.42 0.40 0.41 0.42 0.47 0.51 0.56 0.66 0.85 0.91 1.21 1.56 1.81 1.32 1.03 1.16 1.21 1.04 1.09
0.68 0.69 0.88 1.06 0.93 0.84 0.86 0.93 0.93 0.87 0.88 0.95 0.88 0.70 0.59 0.63 0.63 0.64 0.61 0.57 0.58 0.57 0.52 0.49 0.45 0.42 0.43 0.39 0.43 0.51 0.61 0.71 0.83 1.02 1.27 1.61 1.74 1.26 1.00 1.13 1.26 1.27 1.23
0.73 0.66 0.74 0.90 0.84 0.80 0.86 0.93 0.93 0.84 0.87 0.90 0.86 0.80 0.63 0.60 0.64 0.67 0.59 0.53 0.52 0.53 0.51 0.50 0.47 0.44 0.41 0.41 0.42 0.47 0.59 0.57 0.71 1.00 1.21 1.58 1.40 1.06 0.92 1.06 1.30 1.43 1.34
0.79 0.73 0.69 0.80 0.80 0.76 0.79 0.84 0.87 0.85 0.93 0.91 0.79 0.73 0.69 0.60 0.60 0.61 0.57 0.57 0.54 0.54 0.53 0.51 0.46 0.42 0.42 0.43 0.43 0.46 0.53 0.47 0.49 0.73 0.95 1.31 1.26 1.17 0.94 0.93 1.13 1.31 1.36
0.85 0.80 0.76 0.74 0.76 0.81 0.88 0.85 0.85 0.90 1.00 0.97 0.79 0.71 0.72 0.60 0.53 0.52 0.54 0.55 0.55 0.58 0.62 0.55 0.45 0.39 0.43 0.46 0.45 0.46 0.49 0.50 0.51 0.64 0.76 1.05 1.12 1.15 0.97 0.91 1.01 1.13 1.30
0.81 0.76 0.70 0.69 0.73 0.76 0.86 0.88 0.86 0.85 0.94 0.94 0.82 0.81 0.81 0.65 0.54 0.54 0.53 0.57 0.61 0.64 0.70 0.65 0.55 0.48 0.48 0.50 0.50 0.48 0.47 0.43 0.47 0.54 0.74 0.81 1.01 1.04 0.88 0.84 0.89 0.93 1.02
0.71 0.71 0.68 0.65 0.67 0.73 0.81 0.81 0.91 0.93 0.96 0.89 0.82 0.86 0.77 0.57 0.53 0.56 0.51 0.63 0.73 0.87 0.88 0.79 0.70 0.62 0.56 0.49 0.48 0.48 0.38 0.33 0.49 0.57 0.70 0.83 1.02 1.02 0.85 0.80 0.84 0.78 0.79
0.72 0.71 0.67 0.70 0.68 0.67 0.71 0.94 1.11 0.98 0.89 0.78 0.81 0.78 0.76 0.73 0.70 0.52 0.53 0.69 0.76 0.85 0.88 0.82 0.78 0.64 0.47 0.37 0.42 0.43 0.28 0.31 0.43 0.50 0.56 0.83 1.03 1.08 0.95 0.82 0.78 0.73 0.68
0.68 0.68 0.64 0.62 0.57 0.56 0.70 0.88 1.06 1.11 1.07 1.04 0.90 0.89 0.85 0.76 0.65 0.51 0.49 0.54 0.59 0.68 0.67 0.73 0.71 0.51 0.40 0.40 0.43 0.36 0.30 0.34 0.42 0.49 0.62 0.92 1.09 1.11 1.03 0.88 0.81 0.75 0.68
0.58 0.61 0.58 0.55 0.52 0.50 0.50 0.61 0.76 0.83 0.82 0.84 0.85 0.79 0.80 0.81 0.74 0.64 0.58 0.62 0.65 0.63 0.69 0.75 0.73 0.60 0.51 0.43 0.41 0.40 0.40 0.40 0.46 0.58 0.68 0.87 1.12 1.17 1.14 1.01 0.94 0.86 0.77
0.53 0.55 0.56 0.59 0.56 0.61 0.60 0.57 0.56 0.62 0.67 0.72 0.80 0.72 0.67 0.70 0.73 0.75 0.69 0.73 0.70 0.68 0.71 0.72 0.61 0.60 0.59 0.50 0.46 0.47 0.53 0.47 0.56 0.59 0.69 0.81 1.13 1.44 1.45 1.31 1.15 1.00 0.90
0.50 0.61 0.64 0.59 0.62 0.60 0.56 0.59 0.62 0.62 0.66 0.69 0.73 0.66 0.60 0.60 0.62 0.74 0.73 0.78 0.69 0.71 0.79 0.72 0.65 0.67 0.67 0.58 0.49 0.51 0.53 0.50 0.55 0.62 0.71 0.84 1.00 1.36 1.66 1.65 1.51 1.33 1.10
0.45 0.58 0.69 0.67 0.69 0.65 0.60 0.63 0.66 0.66 0.63 0.65 0.69 0.62 0.58 0.61 0.62 0.74 0.78 0.77 0.75 0.78 0.81 0.84 0.83 0.78 0.70 0.62 0.55 0.53 0.53 0.53 0.58 0.62 0.65 0.82 0.84 0.90 1.26 1.66 1.78 1.68 1.43
0.42 0.52 0.64 0.65 0.70 0.73 0.73 0.73 0.70 0.65 0.67 0.72 0.75 0.70 0.66 0.64 0.67 0.87 0.92 0.81 0.86 0.97 1.00 1.01 0.97 0.89 0.79 0.76 0.75 0.68 0.59 0.56 0.60 0.64 0.65 0.70 0.73 0.68 0.74 0.92 1.17 1.37 1.57
0.43 0.48 0.53 0.59 0.78 0.82 0.78 0.84 0.84 0.80 0.86 0.89 0.92 0.89 0.84 0.81 0.89 1.06 1.13 1.04 1.02 1.17 1.14 1.03 1.04 1.04 0.95 0.94 0.92 0.91 0.76 0.66 0.66 0.64 0.73 0.82 0.81 0.79 0.80 0.65 0.72 0.87 1.18
0.37 0.41 0.47 0.55 0.68 0.80 0.95 1.03 1.11 1.12 1.11 1.23 1.30 1.29 1.12 1.07 1.13 1.28 1.38 1.34 1.30 1.41 1.39 1.27 1.35 1.35 1.25 1.27 1.17 1.06 0.96 0.88 0.84 0.82 0.82 0.90 0.95 0.87 0.88 0.77 0.71 0.62 0.75
0.27 0.31 0.37 0.54 0.70 0.86 0.99 1.13 1.38 1.54 1.64 1.63 1.63 1.70 1.62 1.44 1.52 1.63 1.60 1.82 1.89 1.86 1.85 1.80 1.92 1.93 1.66 1.49 1.73 1.70 1.29 1.02 0.91 0.93 0.98 1.01 1.04 1.04 1.02 0.95 0.86 0.69 0.60
0.17 0.22 0.30 0.44 0.68 0.92 1.15 1.33 1.52 1.84 2.00 2.00 2.06 2.01 1.96 1.85 1.87 1.79 1.87 2.08 2.13 2.23 2.32 2.16 2.28 2.33 2.03 1.73 2.09 2.48 1.98 1.57 1.03 0.84 0.93 1.03 1.13 1.17 1.11 0.97 0.91 0.83 0.72
0.10 0.15 0.22 0.34 0.57 0.88 1.19 1.45 1.64 1.88 2.14 2.24 2.15 2.10 2.13 2.21 2.26 2.15 2.11 2.23 2.25 2.32 2.51 2.55 2.49 2.55 2.46 2.16 2.12 2.52 2.37 2.03 1.61 1.06 0.94 1.03 1.17 1.25 1.26 1.22 1.07 0.98 0.88
0.12 0.14 0.18 0.32 0.48 0.72 0.99 1.32 1.57 1.84 2.15 2.22 2.20 2.17 2.21 2.33 2.42 2.38 2.33 2.39 2.39 2.35 2.47 2.56 2.53 2.73 2.88 2.60 2.34 2.11 2.02 2.02 2.00 1.55 1.13 1.08 1.25 1.31 1.33 1.25 1.22 1.21 1.18
0.17 0.19 0.25 0.39 0.54 0.74 0.98 1.30 1.63 1.82 1.99 2.19 2.20 2.12 2.05 2.12 2.14 2.12 2.24 2.39 2.41 2.38 2.39 2.57 2.68 2.85 2.84 2.74 2.58 2.45 2.25 2.06 1.72 1.78 1.64 1.38 1.37 1.28 1.34 1.44 1.43 1.43 1.39
0.27 0.32 0.39 0.51 0.72 0.87 0.97 1.12 1.29 1.50 1.78 1.92 2.02 2.06 2.07 2.07 1.95 1.87 1.98 2.09 2.18 2.23 2.21 2.27 2.42 2.56 2.73 2.87 2.79 2.60 2.47 2.33 2.13 2.00 1.73 1.56 1.63 1.46 1.33 1.35 1.40 1.44 1.57

GEFSSE_prec_meanprecacc_162.txt.gz
Total_Precipitation_Accumulation
0.80 0.61 1.08 1.14 0.99 0.92 0.95 0.98 0.99 1.02 1.00 1.02 0.96 0.89 0.84 0.71 0.61 0.53 0.47 0.39 0.43 0.53 0.50 0.44 0.39 0.34 0.27 0.25 0.29 0.36 0.45 0.54 0.60 0.61 0.71 0.75 0.72 0.78 0.94 1.15 1.32 1.50 1.10
0.65 0.58 1.07 1.18 0.98 0.86 0.86 0.87 0.96 0.95 0.91 0.92 0.90 0.91 0.74 0.59 0.54 0.50 0.46 0.42 0.40 0.44 0.45 0.46 0.46 0.40 0.33 0.34 0.38 0.43 0.46 0.51 0.62 0.67 0.84 0.90 0.83 0.84 0.81 0.92 1.15 1.32 1.08
0.63 0.60 0.86 1.09 0.93 0.82 0.81 0.84 0.91 0.91 0.89 0.90 0.92 0.96 0.72 0.59 0.57 0.52 0.51 0.49 0.45 0.39 0.42 0.50 0.54 0.50 0.42 0.44 0.47 0.50 0.52 0.55 0.66 0.77 1.13 1.68 1.19 0.89 0.88 0.96 1.04 1.00 1.06
0.73 0.71 0.87 1.12 0.98 0.85 0.83 0.91 0.97 0.99 0.98 1.03 1.02 0.89 0.67 0.62 0.61 0.59 0.60 0.62 0.55 0.43 0.41 0.43 0.48 0.48 0.45 0.49 0.51 0.49 0.55 0.60 0.72 0.84 1.18 1.66 1.57 1.18 1.06 1.12 1.07 0.92 1.06
0.75 0.83 1.11 1.21 1.02 0.92 0.87 0.92 1.06 1.11 1.07 1.09 1.02 0.77 0.66 0.63 0.65 0.65 0.68 0.67 0.62 0.56 0.48 0.43 0.44 0.42 0.42 0.44 0.49 0.53 0.58 0.68 0.87 0.92 1.23 1.59 1.85 1.34 1.05 1.19 1.25 1.08 1.15
0.71 0.75 0.95 1.14 1.01 0.92 0.94 1.01 0.99 0.92 0.93 1.01 0.93 0.75 0.63 0.66 0.66 0.66 0.64 0.61 0.62 0.60 0.54 0.51 0.47 0.43 0.44 0.41 0.46 0.54 0.64 0.73 0.85 1.04 1.30 1.64 1.77 1.29 1.02 1.15 1.30 1.33 1.32
0.76 0.71 0.79 0.98 0.92 0.87 0.92 0.99 0.98 0.89 0.92 0.95 0.91 0.84 0.67 0.64 0.67 0.69 0.61 0.55 0.54 0.54 0.52 0.51 0.47 0.44 0.42 0.43 0.45 0.50 0.62 0.58 0.73 1.03 1.24 1.61 1.46 1.12 0.95 1.09 1.33 1.46 1.39
0.82 0.77 0.75 0.86 0.85 0.82 0.85 0.90 0.91 0.89 0.97 0.96 0.83 0.77 0.73 0.64 0.63 0.63 0.58 0.58 0.56 0.56 0.55 0.53 0.47 0.43 0.43 0.44 0.45 0.48 0.55 0.47 0.49 0.75 0.99 1.39 1.40 1.24 0.97 0.96 1.15 1.33 1.40
0.90 0.86 0.81 0.78 0.80 0.86 0.97 0.93 0.89 0.94 1.04 1.00 0.81 0.74 0.75 0.63 0.56 0.54 0.56 0.57 0.56 0.60 0.63 0.57 0.47 0.41 0.45 0.48 0.48 0.48 0.51 0.51 0.53 0.66 0.79 1.12 1.20 1.21 1.01 0.95 1.05 1.18 1.35
0.86 0.80 0.74 0.72 0.75 0.78 0.89 0.94 0.88 0.87 0.96 0.95 0.83 0.82 0.82 0.66 0.55 0.55 0.54 0.58 0.61 0.65 0.71 0.66 0.55 0.49 0.50 0.52 0.51 0.49 0.48 0.44 0.47 0.56 0.76 0.84 1.06 1.11 0.95 0.89 0.93 0.97 1.05
0.73 0.72 0.69 0.67 0.69 0.74 0.82 0.85 0.92 0.94 0.97 0.90 0.83 0.86 0.77 0.57 0.53 0.56 0.51 0.63 0.74 0.88 0.89 0.80 0.71 0.63 0.58 0.50 0.49 0.49 0.39 0.33 0.50 0.58 0.73 0.87 1.08 1.08 0.91 0.86 0.89 0.82 0.83
0.73 0.71 0.68 0.70 0.68 0.67 0.72 0.97 1.11 0.99 0.89 0.78 0.81 0.78 0.76 0.73 0.70 0.52 0.53 0.69 0.76 0.85 0.88 0.83 0.78 0.65 0.47 0.37 0.42 0.44 0.28 0.31 0.44 0.51 0.59 0.86 1.09 1.15 1.01 0.87 0.84 0.78 0.72
0.69 0.69 0.64 0.63 0.58 0.56 0.71 0.89 1.07 1.11 1.07 1.05 0.90 0.89 0.85 0.76 0.65 0.51 0.49 0.54 0.59 0.68 0.67 0.74 0.72 0.52 0.41 0.40 0.44 0.36 0.30 0.35 0.43 0.51 0.65 0.96 1.13 1.16 1.09 0.93 0.87 0.81 0.74
0.60 0.63 0.59 0.57 0.53 0.50 0.51 0.62 0.77 0.83 0.83 0.84 0.85 0.79 0.80 0.81 0.74 0.64 0.58 0.62 0.65 0.63 0.69 0.76 0.73 0.60 0.52 0.44 0.42 0.40 0.40 0.40 0.47 0.59 0.70 0.91 1.16 1.21 1.19 1.06 1.01 0.92 0.83
0.55 0.57 0.57 0.59 0.57 0.62 0.61 0.57 0.56 0.62 0.68 0.72 0.80 0.72 0.67 0.70 0.73 0.75 0.69 0.73 0.70 0.68 0.71 0.72 0.61 0.60 0.60 0.51 0.46 0.48 0.53 0.47 0.56 0.60 0.70 0.84 1.16 1.48 1.50 1.37 1.22 1.07 0.97
0.52 0.62 0.64 0.60 0.62 0.60 0.56 0.59 0.62 0.62 0.66 0.69 0.73 0.66 0.60 0.60 0.62 0.74 0.73 0.78 0.69 0.71 0.79 0.72 0.65 0.68 0.68 0.59 0.50 0.51 0.53 0.50 0.56 0.63 0.72 0.86 1.02 1.39 1.71 1.72 1.59 1.40 1.17
0.47 0.59 0.70 0.67 0.69 0.65 0.60 0.63 0.66 0.66 0.63 0.65 0.69 0.62 0.58 0.61 0.62 0.74 0.78 0.77 0.75 0.78 0.81 0.84 0.83 0.79 0.70 0.62 0.56 0.53 0.53 0.53 0.58 0.63 0.66 0.83 0.86 0.92 1.29 1.70 1.85 1.77 1.51
0.43 0.52 0.64 0.65 0.70 0.74 0.73 0.73 0.70 0.65 0.67 0.72 0.75 0.70 0.66 0.64 0.67 0.87 0.92 0.81 0.86 0.97 1.00 1.02 0.98 0.90 0.80 0.76 0.75 0.68 0.60 0.57 0.60 0.65 0.66 0.72 0.75 0.71 0.76 0.94 1.20 1.43 1.64
0.44 0.48 0.53 0.59 0.79 0.82 0.78 0.84 0.84 0.80 0.86 0.89 0.92 0.89 0.84 0.81 0.89 1.06 1.13 1.04 1.02 1.17 1.14 1.03 1.04 1.05 0.96 0.95 0.93 0.92 0.78 0.68 0.67 0.65 0.74 0.83 0.83 0.81 0.83 0.67 0.74 0.89 1.24
0.37 0.41 0.47 0.56 0.68 0.80 0.95 1.03 1.11 1.12 1.11 1.23 1.30 1.29 1.12 1.07 1.13 1.28 1.38 1.34 1.30 1.41 1.39 1.27 1.36 1.35 1.26 1.29 1.18 1.07 0.98 0.91 0.87 0.85 0.85 0.92 0.98 0.89 0.91 0.80 0.74 0.64 0.78
0.28 0.32 0.38 0.54 0.70 0.86 0.99 1.13 1.38 1.54 1.64 1.63 1.63 1.70 1.62 1.44 1.52 1.64 1.60 1.82 1.89 1.86 1.86 1.80 1.92 1.94 1.67 1.50 1.75 1.73 1.33 1.06 0.94 0.95 1.00 1.03 1.07 1.07 1.05 0.98 0.89 0.73 0.63
0.19 0.23 0.30 0.44 0.68 0.92 1.15 1.33 1.52 1.84 2.00 2.00 2.06 2.01 1.96 1.85 1.87 1.79 1.87 2.08 2.13 2.23 2.32 2.16 2.29 2.35 2.03 1.74 2.11 2.52 2.02 1.61 1.06 0.86 0.95 1.04 1.15 1.19 1.14 0.99 0.95 0.86 0.75
0.12 0.16 0.22 0.35 0.57 0.88 1.19 1.45 1.64 1.88 2.14 2.24 2.15 2.10 2.13 2.21 2.26 2.15 2.11 2.23 2.25 2.32 2.51 2.55 2.50 2.57 2.48 2.17 2.13 2.54 2.39 2.06 1.64 1.08 0.95 1.04 1.18 1.27 1.29 1.25 1.10 1.01 0.90
0.13 0.16 0.20 0.34 0.49 0.72 0.99 1.32 1.57 1.84 2.15 2.22 2.20 2.17 2.21 2.33 2.42 2.38 2.33 2.39 2.39 2.35 2.47 2.56 2.54 2.74 2.89 2.61 2.35 2.12 2.03 2.03 2.02 1.57 1.15 1.09 1.26 1.33 1.35 1.27 1.24 1.24 1.21
0.19 0.20 0.27 0.40 0.54 0.74 0.98 1.30 1.63 1.82 1.99 2.19 2.20 2.12 2.05 2.12 2.14 2.12 2.24 2.39 2.41 2.38 2.39 2.58 2.69 2.86 2.84 2.75 2.59 2.46 2.26 2.07 1.73 1.79 1.66 1.40 1.39 1.29 1.36 1.45 1.45 1.46 1.43
0.29 0.33 0.40 0.52 0.72 0.87 0.97 1.12 1.29 1.50 1.78 1.92 2.02 2.06 2.07 2.07 1.95 1.87 1.98 2.09 2.18 2.23 2.21 2.27 2.43 2.57 2.73 2.88 2.80 2.61 2.48 2.35 2.14 2.01 1.74 1.58 1.65 1.48 1.35 1.36 1.41 1.46 1.59

GEFSSE_prec_meanprecacc_168.txt.gz
Total_Precipitation_Accumulation
0.93 0.68 1.13 1.21 1.08 1.03 1.06 1.08 1.07 1.10 1.09 1.11 1.05 0.97 0.91 0.79 0.69 0.60 0.51 0.43 0.46 0.55 0.52 0.47 0.42 0.36 0.29 0.26 0.29 0.37 0.45 0.54 0.60 0.62 0.72 0.79 0.77 0.85 0.98 1.19 1.38 1.57 1.15
0.72 0.61 1.11 1.25 1.09 0.96 0.94 0.96 1.05 1.05 1.02 1.01 0.99 1.01 0.84 0.67 0.61 0.56 0.50 0.45 0.43 0.47 0.48 0.47 0.46 0.41 0.34 0.35 0.39 0.43 0.46 0.51 0.62 0.68 0.87 0.95 0.88 0.88 0.82 0.95 1.20 1.37 1.13
0.70 0.64 0.90 1.17 1.03 0.91 0.88 0.91 0.99 0.99 0.97 0.98 0.99 1.04 0.79 0.65 0.61 0.57 0.56 0.53 0.49 0.42 0.45 0.52 0.54 0.51 0.43 0.45 0.48 0.50 0.53 0.55 0.66 0.78 1.19 1.79 1.27 0.93 0.91 0.99 1.07 1.04 1.11
0.80 0.76 0.92 1.20 1.06 0.93 0.91 1.00 1.05 1.05 1.05 1.10 1.07 0.93 0.71 0.67 0.65 0.62 0.64 0.65 0.57 0.45 0.42 0.44 0.49 0.49 0.46 0.50 0.52 0.49 0.56 0.60 0.72 0.86 1.26 1.78 1.68 1.23 1.10 1.16 1.11 0.97 1.11
0.82 0.89 1.18 1.29 1.08 0.98 0.93 1.00 1.13 1.17 1.13 1.13 1.04 0.79 0.68 0.67 0.69 0.68 0.71 0.69 0.63 0.58 0.50 0.45 0.45 0.43 0.43 0.45 0.50 0.53 0.58 0.68 0.88 0.96 1.30 1.69 1.96 1.39 1.07 1.21 1.29 1.10 1.17
0.77 0.79 0.98 1.21 1.07 0.98 1.00 1.08 1.06 0.98 0.98 1.04 0.95 0.77 0.65 0.70 0.71 0.69 0.66 0.62 0.63 0.61 0.56 0.53 0.49 0.45 0.45 0.42 0.47 0.55 0.64 0.74 0.88 1.09 1.36 1.71 1.86 1.33 1.05 1.17 1.32 1.35 1.35
0.81 0.74 0.81 1.02 0.97 0.91 0.96 1.05 1.03 0.93 0.96 0.97 0.92 0.85 0.70 0.67 0.70 0.71 0.62 0.55 0.54 0.55 0.54 0.53 0.50 0.46 0.43 0.44 0.46 0.50 0.62 0.60 0.75 1.07 1.30 1.66 1.50 1.15 0.99 1.12 1.36 1.49 1.44
0.85 0.79 0.76 0.89 0.88 0.84 0.88 0.95 0.96 0.94 1.02 0.99 0.86 0.81 0.74 0.64 0.64 0.63 0.59 0.59 0.56 0.57 0.57 0.55 0.49 0.44 0.43 0.45 0.46 0.48 0.55 0.48 0.50 0.77 1.04 1.43 1.43 1.27 1.01 1.00 1.20 1.36 1.44
0.93 0.87 0.82 0.79 0.81 0.88 1.01 0.99 0.93 1.00 1.09 1.05 0.84 0.77 0.77 0.64 0.56 0.55 0.57 0.58 0.57 0.61 0.65 0.58 0.48 0.42 0.45 0.48 0.48 0.48 0.51 0.52 0.54 0.68 0.82 1.16 1.23 1.23 1.04 0.97 1.08 1.21 1.40
0.89 0.81 0.75 0.73 0.75 0.79 0.90 0.97 0.91 0.89 0.98 0.98 0.86 0.83 0.84 0.68 0.57 0.56 0.55 0.58 0.62 0.65 0.71 0.66 0.56 0.50 0.50 0.52 0.52 0.49 0.49 0.45 0.48 0.58 0.80 0.88 1.08 1.12 0.98 0.91 0.95 1.00 1.09
0.77 0.74 0.70 0.68 0.70 0.75 0.84 0.86 0.94 0.95 0.98 0.90 0.84 0.87 0.78 0.58 0.54 0.56 0.51 0.63 0.74 0.88 0.89 0.80 0.71 0.63 0.58 0.50 0.49 0.50 0.39 0.34 0.52 0.62 0.77 0.90 1.10 1.09 0.93 0.88 0.92 0.85 0.86
0.77 0.74 0.69 0.71 0.69 0.68 0.72 0.97 1.13 1.00 0.90 0.79 0.81 0.78 0.76 0.73 0.71 0.52 0.53 0.69 0.76 0.85 0.88 0.83 0.78 0.65 0.48 0.38 0.43 0.44 0.29 0.33 0.46 0.54 0.61 0.89 1.11 1.16 1.02 0.91 0.88 0.82 0.76
0.71 0.70 0.65 0.64 0.58 0.57 0.71 0.89 1.08 1.13 1.09 1.05 0.90 0.89 0.85 0.76 0.65 0.51 0.49 0.54 0.59 0.68 0.67 0.74 0.72 0.52 0.42 0.42 0.44 0.36 0.31 0.37 0.45 0.53 0.67 0.98 1.16 1.18 1.11 0.97 0.91 0.84 0.78
0.62 0.64 0.60 0.58 0.53 0.51 0.51 0.62 0.78 0.84 0.83 0.84 0.85 0.79 0.80 0.81 0.74 0.64 0.58 0.62 0.65 0.63 0.69 0.76 0.74 0.60 0.52 0.44 0.42 0.41 0.41 0.42 0.49 0.61 0.72 0.93 1.18 1.24 1.22 1.09 1.04 0.95 0.87
0.58 0.58 0.59 0.60 0.57 0.63 0.61 0.57 0.57 0.62 0.68 0.73 0.80 0.72 0.67 0.70 0.73 0.75 0.69 0.74 0.70 0.68 0.71 0.73 0.61 0.60 0.60 0.51 0.47 0.48 0.54 0.48 0.57 0.62 0.72 0.86 1.18 1.51 1.54 1.40 1.24 1.09 1.03
0.54 0.63 0.65 0.60 0.63 0.61 0.56 0.59 0.63 0.62 0.66 0.69 0.73 0.66 0.60 0.60 0.63 0.74 0.73 0.78 0.69 0.71 0.79 0.72 0.65 0.68 0.68 0.59 0.50 0.52 0.54 0.51 0.58 0.65 0.74 0.88 1.04 1.42 1.75 1.76 1.62 1.42 1.21
0.48 0.60 0.70 0.68 0.70 0.65 0.60 0.63 0.67 0.66 0.63 0.66 0.69 0.62 0.58 0.61 0.62 0.74 0.78 0.77 0.75 0.78 0.81 0.84 0.84 0.79 0.71 0.63 0.57 0.54 0.54 0.54 0.60 0.65 0.68 0.86 0.89 0.93 1.31 1.74 1.89 1.80 1.55
0.44 0.53 0.65 0.66 0.71 0.74 0.73 0.73 0.70 0.65 0.67 0.72 0.75 0.70 0.66 0.64 0.67 0.87 0.92 0.81 0.86 0.97 1.00 1.03 0.99 0.90 0.81 0.78 0.76 0.70 0.62 0.59 0.63 0.68 0.69 0.74 0.79 0.72 0.78 0.96 1.23 1.45 1.66
0.45 0.49 0.54 0.60 0.80 0.83 0.78 0.84 0.84 0.80 0.86 0.89 0.92 0.89 0.84 0.81 0.89 1.06 1.13 1.04 1.02 1.17 1.14 1.04 1.05 1.06 0.98 0.97 0.94 0.93 0.80 0.70 0.70 0.67 0.76 0.86 0.86 0.84 0.86 0.69 0.76 0.91 1.26
0.38 0.42 0.48 0.57 0.69 0.81 0.95 1.03 1.11 1.12 1.11 1.23 1.30 1.29 1.12 1.07 1.13 1.28 1.38 1.34 1.30 1.41 1.41 1.29 1.38 1.37 1.28 1.31 1.19 1.09 1.00 0.94 0.89 0.87 0.87 0.95 1.01 0.92 0.94 0.83 0.77 0.65 0.80
0.30 0.33 0.39 0.56 0.72 0.88 0.99 1.13 1.38 1.54 1.64 1.63 1.63 1.70 1.62 1.44 1.52 1.64 1.61 1.82 1.89 1.87 1.87 1.81 1.93 1.96 1.69 1.51 1.78 1.76 1.36 1.09 0.97 0.97 1.03 1.07 1.11 1.11 1.09 1.02 0.95 0.77 0.66
0.21 0.25 0.32 0.47 0.70 0.93 1.15 1.33 1.52 1.84 2.00 2.00 2.06 2.01 1.96 1.85 1.87 1.79 1.87 2.08 2.13 2.24 2.33 2.17 2.30 2.38 2.07 1.76 2.14 2.56 2.08 1.67 1.11 0.89 0.98 1.08 1.20 1.23 1.18 1.03 0.99 0.91 0.81
0.15 0.19 0.25 0.38 0.59 0.89 1.19 1.45 1.64 1.88 2.14 2.24 2.15 2.10 2.13 2.21 2.26 2.15 2.11 2.23 2.25 2.32 2.52 2.56 2.51 2.61 2.53 2.20 2.15 2.59 2.46 2.13 1.69 1.13 1.00 1.07 1.22 1.31 1.33 1.28 1.13 1.05 0.96
0.17 0.18 0.23 0.37 0.52 0.73 0.99 1.32 1.57 1.84 2.15 2.22 2.20 2.17 2.21 2.33 2.42 2.38 2.33 2.39 2.39 2.35 2.48 2.57 2.55 2.75 2.92 2.64 2.37 2.14 2.06 2.09 2.08 1.63 1.21 1.13 1.28 1.36 1.39 1.30 1.27 1.28 1.26
0.22 0.23 0.29 0.43 0.56 0.74 0.98 1.30 1.63 1.82 1.99 2.19 2.20 2.12 2.05 2.12 2.14 2.12 2.24 2.39 2.41 2.38 2.39 2.58 2.69 2.87 2.86 2.77 2.62 2.48 2.29 2.11 1.78 1.85 1.71 1.46 1.43 1.33 1.39 1.48 1.48 1.51 1.50
0.32 0.35 0.42 0.54 0.74 0.88 0.97 1.12 1.29 1.50 1.78 1.92 2.02 2.06 2.07 2.07 1.95 1.87 1.98 2.09 2.18 2.23 2.22 2.28 2.43 2.58 2.74 2.89 2.82 2.63 2.50 2.38 2.19 2.05 1.79 1.63 1.70 1.52 1.39 1.39 1.44 1.49 1.65

GEFSSE_prec_meanprecacc_174.txt.gz
Total_Precipitation_Accumulation
1.01 0.77 1.24 1.29 1.14 1.10 1.13 1.15 1.11 1.13 1.11 1.13 1.07 1.00 0.92 0.80 0.70 0.61 0.53 0.44 0.48 0.57 0.54 0.49 0.44 0.38 0.30 0.27 0.31 0.38 0.46 0.56 0.62 0.64 0.74 0.81 0.80 0.89 1.01 1.21 1.41 1.61 1.21
0.78 0.70 1.23 1.34 1.15 1.01 0.99 1.01 1.08 1.07 1.04 1.04 1.01 1.03 0.86 0.69 0.62 0.57 0.51 0.47 0.44 0.48 0.49 0.48 0.47 0.42 0.35 0.36 0.40 0.44 0.47 0.53 0.64 0.69 0.89 0.98 0.93 0.93 0.84 0.98 1.23 1.41 1.18
0.76 0.70 1.00 1.26 1.11 0.96 0.93 0.95 1.02 1.02 1.00 1.00 1.01 1.05 0.81 0.67 0.63 0.58 0.58 0.56 0.51 0.44 0.45 0.52 0.55 0.52 0.44 0.45 0.49 0.51 0.54 0.57 0.69 0.81 1.21 1.81 1.31 0.96 0.93 1.03 1.12 1.09 1.15
0.84 0.80 0.97 1.26 1.12 0.99 0.97 1.05 1.08 1.07 1.07 1.12 1.09 0.94 0.73 0.69 0.67 0.64 0.66 0.67 0.59 0.47 0.43 0.44 0.50 0.49 0.47 0.50 0.53 0.50 0.57 0.62 0.76 0.90 1.28 1.79 1.71 1.27 1.13 1.19 1.14 1.01 1.16
0.84 0.92 1.23 1.34 1.13 1.04 0.98 1.04 1.16 1.20 1.16 1.16 1.05 0.80 0.69 0.68 0.70 0.69 0.73 0.70 0.64 0.59 0.51 0.45 0.46 0.44 0.44 0.46 0.51 0.55 0.60 0.70 0.91 0.99 1.31 1.70 1.98 1.43 1.10 1.24 1.31 1.14 1.21
0.79 0.82 1.03 1.26 1.12 1.03 1.03 1.10 1.09 1.01 1.01 1.07 0.97 0.79 0.67 0.71 0.72 0.71 0.67 0.63 0.64 0.62 0.57 0.54 0.50 0.47 0.47 0.43 0.48 0.56 0.66 0.76 0.89 1.11 1.37 1.72 1.88 1.36 1.07 1.19 1.34 1.37 1.38
0.84 0.76 0.84 1.06 1.01 0.96 1.02 1.09 1.07 0.95 0.98 0.99 0.94 0.87 0.71 0.68 0.70 0.72 0.63 0.56 0.55 0.55 0.54 0.54 0.50 0.48 0.45 0.45 0.46 0.52 0.64 0.63 0.76 1.08 1.31 1.67 1.51 1.18 1.00 1.13 1.38 1.51 1.47
0.87 0.80 0.77 0.90 0.89 0.87 0.92 0.99 1.01 0.96 1.04 1.00 0.87 0.82 0.75 0.65 0.64 0.64 0.60 0.60 0.56 0.57 0.57 0.55 0.49 0.45 0.45 0.45 0.46 0.50 0.58 0.50 0.51 0.79 1.06 1.44 1.45 1.29 1.02 1.01 1.21 1.39 1.48
0.95 0.87 0.82 0.80 0.81 0.89 1.02 1.00 0.96 1.01 1.10 1.05 0.85 0.77 0.77 0.64 0.56 0.55 0.57 0.59 0.57 0.61 0.65 0.59 0.48 0.42 0.46 0.49 0.49 0.51 0.54 0.54 0.55 0.70 0.85 1.17 1.26 1.25 1.05 0.98 1.10 1.23 1.43
0.92 0.82 0.75 0.73 0.75 0.79 0.91 0.97 0.92 0.90 0.98 0.99 0.87 0.84 0.84 0.68 0.57 0.56 0.55 0.58 0.62 0.65 0.72 0.67 0.57 0.51 0.51 0.54 0.54 0.52 0.51 0.47 0.49 0.60 0.83 0.90 1.12 1.15 0.99 0.92 0.97 1.03 1.13
0.82 0.75 0.70 0.68 0.70 0.75 0.84 0.86 0.94 0.96 0.98 0.90 0.84 0.88 0.79 0.58 0.54 0.57 0.51 0.63 0.74 0.88 0.89 0.81 0.72 0.64 0.59 0.51 0.51 0.52 0.42 0.36 0.54 0.64 0.80 0.94 1.13 1.11 0.95 0.90 0.94 0.89 0.89
0.82 0.77 0.69 0.71 0.69 0.68 0.72 0.97 1.13 1.00 0.90 0.79 0.81 0.79 0.77 0.74 0.71 0.52 0.53 0.69 0.76 0.85 0.89 0.83 0.79 0.65 0.49 0.39 0.44 0.46 0.32 0.36 0.49 0.57 0.67 0.96 1.17 1.19 1.05 0.93 0.91 0.85 0.79
0.75 0.73 0.66 0.64 0.58 0.57 0.71 0.90 1.08 1.13 1.09 1.05 0.90 0.89 0.85 0.77 0.66 0.51 0.49 0.54 0.59 0.68 0.67 0.74 0.73 0.52 0.42 0.43 0.46 0.39 0.34 0.40 0.48 0.56 0.72 1.05 1.22 1.23 1.15 1.00 0.95 0.88 0.81
0.65 0.67 0.62 0.58 0.53 0.51 0.51 0.62 0.78 0.84 0.83 0.84 0.85 0.79 0.80 0.82 0.75 0.64 0.58 0.62 0.65 0.64 0.69 0.76 0.74 0.61 0.52 0.44 0.43 0.42 0.43 0.43 0.50 0.63 0.76 0.98 1.23 1.28 1.26 1.13 1.08 1.00 0.91
0.62 0.61 0.61 0.60 0.57 0.63 0.61 0.57 0.57 0.62 0.68 0.73 0.80 0.72 0.67 0.70 0.73 0.75 0.69 0.74 0.70 0.69 0.71 0.73 0.62 0.60 0.60 0.51 0.47 0.49 0.54 0.49 0.58 0.63 0.74 0.89 1.22 1.56 1.59 1.45 1.28 1.13 1.06
0.58 0.66 0.68 0.61 0.63 0.61 0.56 0.59 0.63 0.62 0.66 0.69 0.73 0.66 0.60 0.60 0.63 0.74 0.73 0.78 0.69 0.71 0.79 0.72 0.66 0.69 0.69 0.60 0.51 0.53 0.54 0.51 0.58 0.66 0.75 0.90 1.06 1.45 1.79 1.80 1.65 1.46 1.26
0.50 0.62 0.73 0.69 0.70 0.65 0.60 0.63 0.67 0.66 0.63 0.66 0.69 0.62 0.58 0.61 0.62 0.75 0.79 0.77 0.75 0.78 0.82 0.85 0.84 0.79 0.71 0.63 0.58 0.55 0.54 0.54 0.61 0.66 0.69 0.87 0.90 0.94 1.34 1.78 1.93 1.85 1.60
0.46 0.55 0.67 0.68 0.72 0.74 0.73 0.73 0.70 0.66 0.67 0.72 0.75 0.70 0.66 0.64 0.67 0.87 0.92 0.81 0.86 0.97 1.01 1.03 0.99 0.91 0.82 0.78 0.77 0.70 0.62 0.59 0.63 0.68 0.70 0.75 0.80 0.73 0.80 1.00 1.28 1.49 1.70
0.46 0.50 0.56 0.62 0.82 0.83 0.78 0.84 0.84 0.80 0.86 0.89 0.92 0.89 0.84 0.81 0.89 1.06 1.13 1.04 1.02 1.17 1.14 1.04 1.05 1.07 0.98 0.98 0.95 0.94 0.81 0.71 0.70 0.68 0.77 0.87 0.88 0.85 0.86 0.71 0.80 0.95 1.29
0.39 0.43 0.49 0.59 0.72 0.82 0.96 1.04 1.11 1.12 1.11 1.23 1.30 1.29 1.12 1.07 1.13 1.28 1.38 1.34 1.30 1.41 1.41 1.29 1.38 1.38 1.28 1.32 1.19 1.10 1.02 0.96 0.92 0.89 0.90 0.97 1.03 0.94 0.96 0.84 0.79 0.67 0.82
0.30 0.34 0.41 0.59 0.75 0.90 1.00 1.13 1.38 1.55 1.64 1.63 1.63 1.70 1.62 1.44 1.52 1.64 1.61 1.82 1.89 1.87 1.87 1.81 1.93 1.96 1.69 1.51 1.78 1.77 1.37 1.10 0.98 1.00 1.06 1.09 1.15 1.15 1.12 1.05 0.96 0.78 0.67
0.22 0.26 0.34 0.49 0.73 0.97 1.17 1.34 1.53 1.84 2.00 2.00 2.06 2.01 1.96 1.85 1.87 1.79 1.87 2.08 2.13 2.24 2.33 2.17 2.30 2.38 2.07 1.76 2.14 2.57 2.10 1.68 1.12 0.90 1.00 1.11 1.24 1.27 1.20 1.04 1.00 0.92 0.82
0.18 0.20 0.27 0.40 0.63 0.92 1.22 1.46 1.65 1.88 2.14 2.24 2.15 2.10 2.13 2.21 2.26 2.15 2.11 2.23 2.25 2.32 2.52 2.56 2.51 2.61 2.53 2.20 2.16 2.60 2.48 2.15 1.72 1.16 1.03 1.10 1.25 1.34 1.35 1.30 1.15 1.06 0.97
0.20 0.21 0.25 0.39 0.55 0.76 1.01 1.33 1.58 1.84 2.15 2.22 2.20 2.17 2.21 2.33 2.42 2.38 2.33 2.39 2.40 2.35 2.48 2.57 2.55 2.75 2.93 2.66 2.39 2.17 2.09 2.11 2.11 1.67 1.26 1.17 1.32 1.38 1.41 1.32 1.30 1.31 1.28
0.26 0.26 0.33 0.47 0.61 0.78 0.99 1.31 1.63 1.82 1.99 2.19 2.20 2.12 2.05 2.12 2.14 2.12 2.24 2.39 2.41 2.38 2.39 2.58 2.70 2.87 2.86 2.78 2.64 2.51 2.32 2.12 1.79 1.88 1.74 1.49 1.47 1.35 1.42 1.51 1.50 1.53 1.52
0.36 0.39 0.47 0.59 0.78 0.91 1.00 1.13 1.29 1.50 1.78 1.92 2.02 2.06 2.07 2.07 1.95 1.88 1.98 2.09 2.18 2.23 2.22 2.28 2.43 2.58 2.75 2.89 2.82 2.64 2.52 2.40 2.20 2.07 1.80 1.65 1.72 1.55 1.42 1.44 1.47 1.51 1.66

GEFSSE_prec_meanprecacc_180.txt.gz
Total_Precipitation_Accumulation
1.07 0.91 1.48 1.51 1.31 1.23 1.26 1.25 1.22 1.21 1.18 1.20 1.13 1.06 0.97 0.83 0.73 0.65 0.57 0.48 0.50 0.59 0.57 0.52 0.47 0.41 0.32 0.28 0.31 0.39 0.47 0.57 0.63 0.65 0.76 0.83 0.82 0.92 1.04 1.23 1.43 1.64 1.30
0.83 0.86 1.51 1.55 1.30 1.13 1.11 1.12 1.18 1.14 1.10 1.10 1.05 1.06 0.89 0.71 0.64 0.60 0.54 0.50 0.47 0.51 0.52 0.50 0.49 0.44 0.36 0.37 0.41 0.44 0.48 0.54 0.65 0.70 0.91 1.00 0.96 0.96 0.86 1.00 1.25 1.44 1.23
0.82 0.81 1.18 1.45 1.28 1.08 1.04 1.08 1.11 1.07 1.04 1.04 1.04 1.08 0.83 0.69 0.64 0.60 0.60 0.58 0.55 0.47 0.47 0.54 0.56 0.53 0.45 0.46 0.50 0.52 0.56 0.58 0.70 0.83 1.24 1.82 1.33 1.00 0.96 1.07 1.15 1.15 1.21
0.89 0.86 1.07 1.42 1.28 1.12 1.10 1.13 1.14 1.13 1.11 1.16 1.13 0.96 0.74 0.71 0.68 0.66 0.68 0.69 0.63 0.51 0.46 0.47 0.52 0.52 0.50 0.53 0.55 0.53 0.60 0.65 0.78 0.93 1.29 1.79 1.73 1.32 1.16 1.22 1.18 1.08 1.22
0.89 0.97 1.33 1.48 1.26 1.13 1.08 1.10 1.22 1.26 1.22 1.20 1.08 0.83 0.72 0.70 0.72 0.72 0.75 0.72 0.67 0.62 0.54 0.49 0.49 0.47 0.48 0.50 0.54 0.59 0.64 0.74 0.93 0.99 1.32 1.70 2.00 1.48 1.14 1.27 1.35 1.20 1.26
0.84 0.89 1.14 1.37 1.22 1.10 1.10 1.15 1.13 1.06 1.06 1.11 1.01 0.82 0.70 0.74 0.74 0.72 0.68 0.66 0.67 0.65 0.60 0.56 0.53 0.50 0.50 0.47 0.52 0.60 0.69 0.79 0.90 1.11 1.37 1.73 1.90 1.40 1.10 1.22 1.38 1.42 1.42
0.87 0.82 0.92 1.13 1.08 1.02 1.08 1.15 1.12 0.99 1.02 1.03 0.97 0.89 0.75 0.72 0.74 0.75 0.65 0.59 0.57 0.57 0.55 0.55 0.52 0.49 0.47 0.48 0.49 0.55 0.68 0.67 0.77 1.09 1.32 1.68 1.54 1.21 1.03 1.15 1.40 1.55 1.50
0.90 0.82 0.80 0.95 0.94 0.91 0.98 1.06 1.07 1.00 1.07 1.03 0.89 0.84 0.78 0.68 0.67 0.66 0.61 0.61 0.58 0.58 0.58 0.56 0.50 0.47 0.46 0.48 0.50 0.53 0.62 0.53 0.52 0.79 1.06 1.45 1.48 1.31 1.04 1.03 1.24 1.43 1.51
0.98 0.89 0.83 0.82 0.84 0.92 1.05 1.02 0.97 1.03 1.12 1.07 0.86 0.78 0.78 0.65 0.58 0.57 0.58 0.59 0.58 0.62 0.66 0.60 0.49 0.44 0.48 0.52 0.53 0.55 0.57 0.56 0.56 0.72 0.86 1.18 1.29 1.27 1.07 1.01 1.14 1.27 1.48
0.97 0.85 0.76 0.74 0.77 0.81 0.93 0.98 0.92 0.90 0.99 0.99 0.87 0.84 0.85 0.69 0.57 0.57 0.55 0.59 0.63 0.66 0.73 0.68 0.58 0.52 0.53 0.56 0.58 0.55 0.54 0.48 0.51 0.62 0.87 0.92 1.15 1.17 1.01 0.95 1.01 1.07 1.16
0.88 0.78 0.72 0.69 0.71 0.76 0.85 0.87 0.95 0.96 0.99 0.91 0.85 0.89 0.79 0.58 0.54 0.57 0.52 0.64 0.75 0.88 0.90 0.82 0.73 0.65 0.60 0.54 0.55 0.55 0.43 0.36 0.54 0.66 0.84 0.98 1.18 1.14 0.97 0.93 0.98 0.93 0.93
0.89 0.79 0.71 0.73 0.70 0.69 0.73 0.97 1.13 1.00 0.90 0.79 0.81 0.79 0.77 0.74 0.71 0.53 0.53 0.69 0.76 0.85 0.89 0.83 0.79 0.66 0.50 0.40 0.45 0.47 0.33 0.37 0.49 0.59 0.70 1.01 1.21 1.23 1.08 0.96 0.95 0.89 0.83
0.83 0.76 0.68 0.66 0.59 0.58 0.72 0.90 1.08 1.13 1.09 1.05 0.90 0.90 0.85 0.77 0.66 0.52 0.49 0.54 0.60 0.68 0.67 0.74 0.73 0.52 0.43 0.44 0.47 0.39 0.35 0.40 0.48 0.57 0.76 1.11 1.28 1.29 1.21 1.05 0.99 0.92 0.85
0.69 0.72 0.65 0.60 0.55 0.52 0.52 0.63 0.79 0.84 0.83 0.84 0.85 0.79 0.80 0.82 0.75 0.64 0.59 0.62 0.65 0.64 0.69 0.76 0.74 0.61 0.52 0.45 0.43 0.42 0.43 0.44 0.51 0.64 0.79 1.04 1.29 1.34 1.32 1.20 1.14 1.05 0.97
0.63 0.64 0.65 0.63 0.59 0.64 0.62 0.58 0.57 0.62 0.68 0.73 0.80 0.72 0.67 0.70 0.73 0.75 0.69 0.74 0.70 0.69 0.71 0.73 0.62 0.60 0.60 0.51 0.48 0.49 0.55 0.50 0.59 0.64 0.76 0.94 1.27 1.61 1.65 1.51 1.34 1.18 1.13
0.60 0.67 0.69 0.62 0.64 0.62 0.57 0.60 0.63 0.62 0.66 0.69 0.73 0.66 0.60 0.60 0.63 0.74 0.73 0.78 0.69 0.71 0.79 0.72 0.66 0.69 0.69 0.60 0.52 0.53 0.54 0.52 0.59 0.66 0.75 0.92 1.10 1.49 1.84 1.87 1.73 1.51 1.32
0.52 0.64 0.73 0.70 0.71 0.66 0.61 0.63 0.67 0.66 0.63 0.66 0.69 0.62 0.58 0.61 0.62 0.75 0.79 0.78 0.75 0.78 0.82 0.85 0.84 0.80 0.71 0.63 0.58 0.55 0.54 0.55 0.61 0.66 0.70 0.88 0.91 0.97 1.38 1.85 2.03 1.94 1.69
0.47 0.56 0.68 0.69 0.73 0.75 0.73 0.73 0.71 0.66 0.67 0.72 0.75 0.70 0.66 0.64 0.67 0.87 0.92 0.82 0.87 0.97 1.01 1.03 0.99 0.91 0.82 0.78 0.77 0.70 0.62 0.59 0.64 0.69 0.70 0.76 0.80 0.74 0.83 1.07 1.35 1.58 1.78
0.47 0.51 0.56 0.63 0.83 0.84 0.79 0.84 0.85 0.81 0.86 0.89 0.92 0.89 0.84 0.81 0.89 1.06 1.13 1.04 1.02 1.17 1.14 1.04 1.05 1.07 0.98 0.99 0.95 0.94 0.82 0.72 0.72 0.69 0.78 0.88 0.89 0.85 0.87 0.74 0.84 1.00 1.35
0.40 0.43 0.49 0.60 0.73 0.82 0.96 1.04 1.11 1.12 1.12 1.23 1.30 1.29 1.12 1.07 1.13 1.28 1.38 1.34 1.30 1.42 1.41 1.29 1.38 1.38 1.28 1.32 1.20 1.10 1.02 0.97 0.94 0.92 0.91 0.98 1.04 0.95 0.98 0.86 0.81 0.69 0.85
0.32 0.35 0.41 0.59 0.76 0.91 1.01 1.14 1.38 1.55 1.64 1.63 1.63 1.70 1.62 1.44 1.52 1.64 1.61 1.82 1.89 1.87 1.87 1.81 1.93 1.96 1.69 1.52 1.79 1.77 1.38 1.11 1.00 1.02 1.08 1.11 1.16 1.17 1.15 1.07 0.98 0.79 0.69
0.23 0.26 0.34 0.50 0.74 0.97 1.18 1.34 1.53 1.84 2.00 2.00 2.06 2.01 1.96 1.85 1.87 1.79 1.87 2.08 2.13 2.24 2.33 2.17 2.30 2.38 2.07 1.76 2.14 2.58 2.11 1.69 1.13 0.91 1.02 1.12 1.26 1.28 1.22 1.06 1.02 0.94 0.84
0.18 0.21 0.27 0.41 0.64 0.93 1.22 1.47 1.65 1.88 2.14 2.24 2.15 2.10 2.13 2.21 2.26 2.15 2.11 2.23 2.25 2.32 2.52 2.56 2.51 2.61 2.53 2.20 2.16 2.60 2.48 2.16 1.72 1.16 1.04 1.11 1.27 1.36 1.38 1.32 1.16 1.08 0.99
0.21 0.22 0.26 0.41 0.57 0.77 1.02 1.34 1.59 1.84 2.15 2.22 2.20 2.18 2.21 2.33 2.42 2.38 2.33 2.39 2.40 2.35 2.48 2.57 2.55 2.76 2.93 2.66 2.40 2.18 2.10 2.12 2.12 1.68 1.27 1.19 1.34 1.39 1.43 1.34 1.31 1.33 1.31
0.26 0.27 0.34 0.48 0.62 0.79 1.01 1.32 1.64 1.83 1.99 2.19 2.20 2.12 2.05 2.12 2.14 2.12 2.24 2.39 2.41 2.38 2.39 2.58 2.70 2.87 2.86 2.78 2.65 2.51 2.33 2.13 1.81 1.89 1.75 1.51 1.48 1.37 1.43 1.53 1.52 1.55 1.54
0.36 0.40 0.48 0.60 0.80 0.93 1.01 1.13 1.30 1.51 1.79 1.92 2.02 2.06 2.07 2.07 1.95 1.88 1.98 2.09 2.18 2.23 2.22 2.28 2.44 2.58 2.75 2.89 2.82 2.64 2.53 2.41 2.23 2.10 1.82 1.67 1.73 1.56 1.44 1.46 1.49 1.53 1.67

GEFSSE_prec_meanprecacc_186.txt.gz
Total_Precipitation_Accumulation
1.15 1.06 1.72 1.79 1.53 1.41 1.43 1.41 1.39 1.38 1.30 1.29 1.23 1.18 1.10 0.95 0.80 0.70 0.61 0.52 0.53 0.62 0.60 0.55 0.51 0.44 0.34 0.29 0.32 0.40 0.48 0.58 0.65 0.66 0.77 0.84 0.84 0.94 1.05 1.25 1.46 1.69 1.37
0.91 1.00 1.72 1.79 1.51 1.28 1.27 1.25 1.30 1.27 1.22 1.19 1.14 1.16 0.98 0.79 0.70 0.66 0.60 0.53 0.50 0.54 0.56 0.54 0.53 0.46 0.37 0.38 0.42 0.46 0.49 0.55 0.66 0.71 0.92 1.03 0.99 0.99 0.89 1.03 1.29 1.51 1.34
0.92 0.97 1.39 1.67 1.49 1.25 1.20 1.23 1.24 1.18 1.15 1.13 1.12 1.15 0.90 0.74 0.70 0.67 0.66 0.63 0.58 0.50 0.51 0.58 0.60 0.56 0.47 0.47 0.51 0.54 0.58 0.60 0.71 0.84 1.25 1.85 1.37 1.04 1.00 1.11 1.20 1.22 1.29
0.96 0.98 1.23 1.62 1.47 1.27 1.23 1.24 1.24 1.23 1.22 1.26 1.21 1.03 0.80 0.77 0.76 0.73 0.74 0.74 0.68 0.55 0.49 0.50 0.54 0.54 0.52 0.54 0.56 0.56 0.63 0.68 0.79 0.94 1.30 1.82 1.76 1.36 1.22 1.28 1.24 1.14 1.30
0.95 1.05 1.45 1.64 1.41 1.28 1.22 1.20 1.31 1.34 1.30 1.29 1.16 0.90 0.79 0.78 0.81 0.80 0.81 0.77 0.71 0.67 0.57 0.51 0.51 0.49 0.50 0.51 0.57 0.61 0.66 0.77 0.95 1.00 1.34 1.74 2.05 1.54 1.21 1.33 1.41 1.27 1.32
0.88 0.96 1.25 1.51 1.36 1.23 1.18 1.22 1.19 1.12 1.14 1.20 1.08 0.88 0.76 0.80 0.81 0.79 0.73 0.69 0.70 0.68 0.64 0.60 0.55 0.52 0.52 0.49 0.54 0.62 0.71 0.81 0.91 1.13 1.41 1.77 1.95 1.48 1.17 1.26 1.43 1.47 1.47
0.91 0.88 1.02 1.24 1.18 1.10 1.16 1.24 1.21 1.08 1.10 1.10 1.03 0.95 0.80 0.76 0.78 0.78 0.68 0.61 0.60 0.60 0.58 0.58 0.54 0.51 0.49 0.49 0.51 0.56 0.70 0.69 0.79 1.12 1.36 1.71 1.59 1.30 1.09 1.18 1.43 1.59 1.54
0.93 0.87 0.87 1.01 1.00 0.96 1.05 1.23 1.27 1.09 1.11 1.06 0.92 0.87 0.80 0.70 0.69 0.68 0.64 0.64 0.61 0.61 0.60 0.58 0.52 0.48 0.47 0.49 0.52 0.56 0.65 0.56 0.54 0.82 1.09 1.48 1.55 1.40 1.09 1.08 1.28 1.47 1.56
1.02 0.94 0.87 0.85 0.87 0.95 1.08 1.06 1.04 1.08 1.18 1.11 0.88 0.80 0.80 0.67 0.59 0.58 0.60 0.61 0.61 0.65 0.68 0.61 0.51 0.46 0.50 0.53 0.56 0.58 0.62 0.60 0.58 0.73 0.88 1.22 1.34 1.31 1.11 1.05 1.19 1.32 1.52
1.01 0.89 0.79 0.77 0.79 0.83 0.95 0.99 0.94 0.93 1.03 1.02 0.90 0.86 0.86 0.69 0.58 0.59 0.57 0.61 0.65 0.68 0.74 0.69 0.59 0.54 0.54 0.58 0.59 0.57 0.55 0.49 0.52 0.63 0.89 0.96 1.19 1.21 1.04 0.98 1.05 1.12 1.21
0.91 0.82 0.75 0.71 0.72 0.77 0.85 0.87 0.95 0.97 0.99 0.92 0.86 0.90 0.80 0.59 0.55 0.57 0.53 0.66 0.76 0.90 0.92 0.84 0.75 0.66 0.61 0.55 0.57 0.56 0.43 0.36 0.55 0.67 0.86 1.00 1.21 1.18 1.01 0.95 1.01 0.97 0.97
0.91 0.82 0.74 0.74 0.70 0.70 0.74 0.98 1.13 1.00 0.90 0.79 0.81 0.79 0.77 0.74 0.71 0.53 0.54 0.70 0.77 0.86 0.90 0.84 0.80 0.66 0.50 0.40 0.46 0.48 0.34 0.37 0.50 0.60 0.72 1.03 1.24 1.26 1.12 0.99 0.98 0.93 0.88
0.87 0.80 0.70 0.67 0.60 0.59 0.73 0.91 1.08 1.13 1.09 1.05 0.90 0.90 0.85 0.77 0.66 0.52 0.49 0.54 0.60 0.69 0.68 0.74 0.73 0.52 0.43 0.44 0.47 0.39 0.36 0.41 0.49 0.59 0.79 1.15 1.31 1.32 1.25 1.09 1.03 0.95 0.90
0.73 0.77 0.68 0.62 0.56 0.53 0.53 0.64 0.79 0.84 0.83 0.84 0.85 0.79 0.80 0.82 0.75 0.64 0.59 0.62 0.65 0.64 0.70 0.77 0.75 0.61 0.53 0.45 0.43 0.42 0.44 0.45 0.52 0.68 0.84 1.08 1.35 1.39 1.37 1.24 1.17 1.09 1.01
0.67 0.68 0.69 0.65 0.60 0.65 0.63 0.59 0.57 0.62 0.68 0.73 0.80 0.72 0.67 0.70 0.73 0.75 0.69 0.74 0.70 0.69 0.71 0.73 0.62 0.60 0.60 0.52 0.48 0.49 0.55 0.50 0.61 0.68 0.80 0.97 1.31 1.66 1.71 1.57 1.39 1.23 1.19
0.64 0.71 0.72 0.64 0.65 0.62 0.57 0.60 0.63 0.62 0.66 0.69 0.73 0.66 0.60 0.60 0.63 0.74 0.73 0.78 0.69 0.71 0.79 0.72 0.66 0.69 0.70 0.61 0.52 0.53 0.55 0.52 0.61 0.69 0.79 0.96 1.13 1.52 1.88 1.92 1.78 1.57 1.39
0.53 0.65 0.74 0.71 0.71 0.66 0.61 0.64 0.68 0.67 0.63 0.66 0.69 0.62 0.58 0.61 0.62 0.75 0.79 0.78 0.75 0.78 0.82 0.85 0.85 0.80 0.72 0.64 0.59 0.55 0.55 0.55 0.62 0.68 0.72 0.91 0.94 1.00 1.41 1.90 2.09 2.02 1.78
0.48 0.56 0.68 0.69 0.73 0.75 0.74 0.74 0.72 0.67 0.67 0.72 0.75 0.70 0.66 0.64 0.67 0.87 0.92 0.82 0.87 0.97 1.01 1.04 1.01 0.92 0.83 0.80 0.79 0.72 0.64 0.61 0.65 0.70 0.71 0.77 0.82 0.76 0.86 1.10 1.41 1.66 1.86
0.48 0.51 0.56 0.63 0.83 0.84 0.79 0.85 0.85 0.81 0.86 0.89 0.92 0.89 0.84 0.81 0.89 1.06 1.13 1.04 1.02 1.17 1.15 1.04 1.06 1.08 1.00 1.00 0.97 0.95 0.83 0.74 0.73 0.70 0.79 0.89 0.90 0.87 0.89 0.76 0.88 1.05 1.41
0.43 0.44 0.50 0.60 0.74 0.83 0.96 1.04 1.12 1.12 1.12 1.23 1.30 1.29 1.12 1.07 1.13 1.28 1.38 1.34 1.30 1.42 1.42 1.29 1.39 1.39 1.29 1.33 1.21 1.11 1.04 0.98 0.96 0.93 0.92 1.00 1.05 0.96 0.99 0.88 0.83 0.72 0.87
0.34 0.35 0.41 0.60 0.76 0.91 1.01 1.14 1.39 1.55 1.65 1.63 1.63 1.70 1.62 1.44 1.52 1.64 1.61 1.82 1.89 1.87 1.88 1.82 1.94 1.96 1.69 1.52 1.80 1.79 1.40 1.12 1.02 1.04 1.10 1.13 1.17 1.18 1.17 1.09 1.00 0.82 0.71
0.24 0.28 0.34 0.50 0.74 0.97 1.18 1.34 1.53 1.84 2.00 2.00 2.06 2.01 1.96 1.85 1.87 1.79 1.87 2.08 2.13 2.24 2.34 2.18 2.30 2.38 2.07 1.77 2.15 2.60 2.14 1.71 1.15 0.93 1.04 1.14 1.27 1.30 1.25 1.08 1.05 0.96 0.86
0.19 0.21 0.27 0.41 0.64 0.93 1.23 1.47 1.65 1.88 2.15 2.24 2.15 2.10 2.13 2.22 2.26 2.15 2.11 2.23 2.25 2.32 2.53 2.57 2.52 2.61 2.53 2.21 2.16 2.61 2.50 2.17 1.74 1.18 1.06 1.13 1.28 1.38 1.41 1.35 1.19 1.11 1.02
0.21 0.22 0.26 0.41 0.57 0.77 1.02 1.35 1.59 1.84 2.15 2.22 2.20 2.18 2.22 2.33 2.42 2.38 2.33 2.39 2.40 2.35 2.48 2.57 2.55 2.76 2.94 2.67 2.40 2.18 2.10 2.13 2.13 1.70 1.29 1.21 1.36 1.42 1.46 1.37 1.34 1.36 1.34
0.28 0.28 0.35 0.48 0.62 0.79 1.01 1.32 1.65 1.83 1.99 2.19 2.21 2.12 2.05 2.12 2.14 2.12 2.24 2.39 2.41 2.38 2.40 2.59 2.70 2.88 2.87 2.79 2.65 2.52 2.34 2.14 1.82 1.91 1.77 1.54 1.51 1.40 1.46 1.56 1.55 1.58 1.57
0.38 0.41 0.49 0.61 0.80 0.94 1.01 1.14 1.30 1.51 1.79 1.92 2.03 2.06 2.07 2.07 1.95 1.88 1.98 2.09 2.18 2.23 2.22 2.28 2.44 2.58 2.75 2.90 2.83 2.65 2.55 2.44 2.25 2.13 1.85 1.70 1.77 1.59 1.47 1.48 1.52 1.55 1.69